Wetterdaten: Mittwoch, 13.07.2016
Datum Zeit Temp. A. Feuchte A. Luftdruck Regen Wind Richtung Richtung Sonnenschein ET UV Solar Taupunkt Windchill Windben Empfang
13.07.2016 00:00 17,5 C 96 % 1012,3 hPa 0,2 l/m 16,7 km/h (3 Bft) SW 229 0 min 0,000 mm 0,0 UV-I 0 W/m 16,9 C 13,8 C 25,7 km/h (4 Bft) 100,00 %
13.07.2016 00:02 17,4 C 95 % 1012,3 hPa 0,0 l/m 15,4 km/h (3 Bft) W-SW 258 0 min 0,000 mm 0,0 UV-I 0 W/m 16,6 C 14,0 C 20,9 km/h (4 Bft) 97,14 %
13.07.2016 00:04 17,3 C 95 % 1012,3 hPa 0,0 l/m 17,5 km/h (3 Bft) W 277 0 min 0,000 mm 0,0 UV-I 0 W/m 16,5 C 13,3 C 27,4 km/h (4 Bft) 98,11 %
13.07.2016 00:06 17,3 C 95 % 1012,3 hPa 0,2 l/m 14,6 km/h (3 Bft) SW 229 0 min 0,000 mm 0,0 UV-I 0 W/m 16,5 C 14,1 C 20,9 km/h (4 Bft) 98,11 %
13.07.2016 00:08 17,2 C 95 % 1012,3 hPa 0,2 l/m 13,3 km/h (3 Bft) W-SW 253 0 min 0,000 mm 0,0 UV-I 0 W/m 16,4 C 14,4 C 19,3 km/h (3 Bft) 97,56 %
13.07.2016 00:10 17,1 C 95 % 1012,3 hPa 0,4 l/m 14,2 km/h (3 Bft) S-SW 212 0 min 0,000 mm 0,0 UV-I 0 W/m 16,3 C 14,0 C 20,9 km/h (4 Bft) 100,00 %
13.07.2016 00:12 17,1 C 95 % 1012,3 hPa 0,2 l/m 21,2 km/h (4 Bft) SW 230 0 min 0,000 mm 0,0 UV-I 0 W/m 16,3 C 12,2 C 30,6 km/h (5 Bft) 100,00 %
13.07.2016 00:14 16,9 C 95 % 1012,3 hPa 0,2 l/m 16,3 km/h (3 Bft) SW 235 0 min 0,000 mm 0,0 UV-I 0 W/m 16,1 C 13,1 C 27,4 km/h (4 Bft) 100,00 %
13.07.2016 00:16 16,8 C 95 % 1012,3 hPa 0,2 l/m 9,0 km/h (2 Bft) W-SW 241 0 min 0,000 mm 0,0 UV-I 0 W/m 16,0 C 15,5 C 17,7 km/h (3 Bft) 100,00 %
13.07.2016 00:18 16,8 C 95 % 1012,2 hPa 0,2 l/m 11,2 km/h (2 Bft) S-SW 212 0 min 0,000 mm 0,0 UV-I 0 W/m 16,0 C 14,6 C 17,7 km/h (3 Bft) 100,00 %
13.07.2016 00:20 16,7 C 95 % 1012,1 hPa 0,0 l/m 10,7 km/h (2 Bft) W-SW 243 0 min 0,000 mm 0,0 UV-I 0 W/m 15,9 C 14,7 C 14,5 km/h (3 Bft) 100,00 %
13.07.2016 00:22 16,6 C 94 % 1012,1 hPa 0,0 l/m 10,3 km/h (2 Bft) SW 215 0 min 0,000 mm 0,0 UV-I 0 W/m 15,6 C 14,8 C 16,1 km/h (3 Bft) 100,00 %
13.07.2016 00:24 16,6 C 94 % 1012,0 hPa 0,2 l/m 9,1 km/h (2 Bft) SW 218 0 min 0,000 mm 0,0 UV-I 0 W/m 15,6 C 15,3 C 14,5 km/h (3 Bft) 95,74 %
13.07.2016 00:26 16,5 C 93 % 1011,9 hPa 0,2 l/m 8,0 km/h (2 Bft) S-SW 193 0 min 0,000 mm 0,0 UV-I 0 W/m 15,4 C 15,7 C 11,3 km/h (2 Bft) 97,87 %
13.07.2016 00:28 16,5 C 93 % 1011,9 hPa 0,0 l/m 10,5 km/h (2 Bft) S-SW 208 0 min 0,000 mm 0,0 UV-I 0 W/m 15,4 C 14,6 C 14,5 km/h (3 Bft) 100,00 %
13.07.2016 00:30 16,5 C 94 % 1011,8 hPa 0,2 l/m 7,3 km/h (2 Bft) S-SW 210 0 min 0,000 mm 0,0 UV-I 0 W/m 15,5 C 16,0 C 12,9 km/h (3 Bft) 98,11 %
13.07.2016 00:32 16,4 C 94 % 1011,7 hPa 0,0 l/m 9,0 km/h (2 Bft) S-SW 196 0 min 0,000 mm 0,0 UV-I 0 W/m 15,4 C 15,1 C 14,5 km/h (3 Bft) 100,00 %
13.07.2016 00:34 16,5 C 94 % 1011,7 hPa 0,0 l/m 8,9 km/h (2 Bft) S 183 0 min 0,000 mm 0,0 UV-I 0 W/m 15,5 C 15,3 C 16,1 km/h (3 Bft) 100,00 %
13.07.2016 00:36 16,5 C 94 % 1011,8 hPa 0,0 l/m 8,6 km/h (2 Bft) S-SW 198 0 min 0,000 mm 0,0 UV-I 0 W/m 15,5 C 15,4 C 12,9 km/h (3 Bft) 97,87 %
13.07.2016 00:38 16,5 C 94 % 1011,8 hPa 0,0 l/m 10,9 km/h (2 Bft) S 184 0 min 0,000 mm 0,0 UV-I 0 W/m 15,5 C 14,4 C 14,5 km/h (3 Bft) 100,00 %
13.07.2016 00:40 16,5 C 95 % 1011,8 hPa 0,0 l/m 10,4 km/h (2 Bft) S-SW 213 0 min 0,000 mm 0,0 UV-I 0 W/m 15,7 C 14,6 C 16,1 km/h (3 Bft) 96,23 %
13.07.2016 00:42 16,5 C 95 % 1011,8 hPa 0,2 l/m 11,3 km/h (2 Bft) S-SW 211 0 min 0,000 mm 0,0 UV-I 0 W/m 15,7 C 14,3 C 17,7 km/h (3 Bft) 96,30 %
13.07.2016 00:44 16,4 C 95 % 1011,9 hPa 0,0 l/m 9,7 km/h (2 Bft) S-SW 193 0 min 0,000 mm 0,0 UV-I 0 W/m 15,6 C 14,8 C 14,5 km/h (3 Bft) 96,88 %
13.07.2016 00:46 16,4 C 95 % 1011,9 hPa 0,0 l/m 13,4 km/h (3 Bft) S 178 0 min 0,000 mm 0,0 UV-I 0 W/m 15,6 C 13,4 C 19,3 km/h (3 Bft) 100,00 %
13.07.2016 00:48 16,4 C 95 % 1012,0 hPa 0,0 l/m 12,4 km/h (3 Bft) S-SW 193 0 min 0,000 mm 0,0 UV-I 0 W/m 15,6 C 13,7 C 19,3 km/h (3 Bft) 100,00 %
13.07.2016 00:50 16,4 C 95 % 1012,1 hPa 0,2 l/m 14,7 km/h (3 Bft) S-SW 193 0 min 0,000 mm 0,0 UV-I 0 W/m 15,6 C 13,0 C 22,5 km/h (4 Bft) 100,00 %
13.07.2016 00:52 16,4 C 94 % 1012,1 hPa 0,0 l/m 12,1 km/h (2 Bft) SW 236 0 min 0,000 mm 0,0 UV-I 0 W/m 15,4 C 13,8 C 22,5 km/h (4 Bft) 100,00 %
13.07.2016 00:54 16,4 C 94 % 1012,1 hPa 0,0 l/m 8,9 km/h (2 Bft) SW 234 0 min 0,000 mm 0,0 UV-I 0 W/m 15,4 C 15,1 C 14,5 km/h (3 Bft) 100,00 %
13.07.2016 00:56 16,3 C 94 % 1012,1 hPa 0,2 l/m 10,6 km/h (2 Bft) S 186 0 min 0,000 mm 0,0 UV-I 0 W/m 15,3 C 14,3 C 17,7 km/h (3 Bft) 100,00 %
13.07.2016 00:58 16,3 C 94 % 1012,2 hPa 0,0 l/m 12,4 km/h (3 Bft) S-SW 208 0 min 0,000 mm 0,0 UV-I 0 W/m 15,3 C 13,6 C 19,3 km/h (3 Bft) 100,00 %
13.07.2016 01:00 16,3 C 94 % 1012,1 hPa 0,0 l/m 13,4 km/h (3 Bft) S-SW 211 0 min 0,000 mm 0,0 UV-I 0 W/m 15,3 C 13,3 C 19,3 km/h (3 Bft) 97,87 %
13.07.2016 01:02 16,3 C 94 % 1012,1 hPa 0,2 l/m 11,1 km/h (2 Bft) SW 227 0 min 0,000 mm 0,0 UV-I 0 W/m 15,3 C 14,1 C 17,7 km/h (3 Bft) 97,14 %
13.07.2016 01:04 16,2 C 94 % 1012,1 hPa 0,0 l/m 11,4 km/h (2 Bft) S 183 0 min 0,000 mm 0,0 UV-I 0 W/m 15,2 C 13,9 C 19,3 km/h (3 Bft) 96,00 %
13.07.2016 01:06 16,2 C 94 % 1012,1 hPa 0,0 l/m 13,6 km/h (3 Bft) S-SO 155 0 min 0,000 mm 0,0 UV-I 0 W/m 15,2 C 13,1 C 20,9 km/h (4 Bft) 98,11 %
13.07.2016 01:08 16,2 C 94 % 1012,0 hPa 0,2 l/m 11,5 km/h (2 Bft) SW 223 0 min 0,000 mm 0,0 UV-I 0 W/m 15,2 C 13,8 C 16,1 km/h (3 Bft) 97,37 %
13.07.2016 01:10 16,1 C 94 % 1011,9 hPa 0,0 l/m 11,1 km/h (2 Bft) S-SW 201 0 min 0,000 mm 0,0 UV-I 0 W/m 15,1 C 13,9 C 17,7 km/h (3 Bft) 96,23 %
13.07.2016 01:12 16,2 C 94 % 1011,9 hPa 0,0 l/m 9,7 km/h (2 Bft) S 181 0 min 0,000 mm 0,0 UV-I 0 W/m 15,2 C 14,6 C 14,5 km/h (3 Bft) 97,56 %
13.07.2016 01:14 16,1 C 94 % 1011,8 hPa 0,0 l/m 9,0 km/h (2 Bft) S-SW 212 0 min 0,000 mm 0,0 UV-I 0 W/m 15,1 C 14,8 C 17,7 km/h (3 Bft) 98,11 %
13.07.2016 01:16 16,1 C 94 % 1011,6 hPa 0,0 l/m 9,2 km/h (2 Bft) S-SO 155 0 min 0,000 mm 0,0 UV-I 0 W/m 15,1 C 14,7 C 14,5 km/h (3 Bft) 97,73 %
13.07.2016 01:18 16,1 C 94 % 1011,6 hPa 0,2 l/m 6,9 km/h (2 Bft) S-SW 200 0 min 0,000 mm 0,0 UV-I 0 W/m 15,1 C 15,8 C 12,9 km/h (3 Bft) 96,00 %
13.07.2016 01:20 16,1 C 94 % 1011,6 hPa 0,0 l/m 9,5 km/h (2 Bft) S 181 0 min 0,000 mm 0,0 UV-I 0 W/m 15,1 C 14,6 C 16,1 km/h (3 Bft) 97,87 %
13.07.2016 01:22 16,1 C 94 % 1011,5 hPa 0,0 l/m 10,0 km/h (2 Bft) S 181 0 min 0,000 mm 0,0 UV-I 0 W/m 15,1 C 14,3 C 19,3 km/h (3 Bft) 97,56 %
13.07.2016 01:24 16,1 C 94 % 1011,5 hPa 0,0 l/m 11,3 km/h (2 Bft) S-SW 213 0 min 0,000 mm 0,0 UV-I 0 W/m 15,1 C 13,8 C 16,1 km/h (3 Bft) 96,00 %
13.07.2016 01:26 16,1 C 95 % 1011,4 hPa 0,0 l/m 9,1 km/h (2 Bft) S-SW 204 0 min 0,000 mm 0,0 UV-I 0 W/m 15,3 C 14,7 C 12,9 km/h (3 Bft) 97,87 %
13.07.2016 01:28 16,2 C 95 % 1011,4 hPa 0,0 l/m 7,8 km/h (2 Bft) S-SW 207 0 min 0,000 mm 0,0 UV-I 0 W/m 15,4 C 15,5 C 11,3 km/h (2 Bft) 97,44 %
13.07.2016 01:30 16,2 C 95 % 1011,4 hPa 0,0 l/m 8,2 km/h (2 Bft) S-SW 207 0 min 0,000 mm 0,0 UV-I 0 W/m 15,4 C 15,3 C 12,9 km/h (3 Bft) 98,18 %
13.07.2016 01:32 16,2 C 95 % 1011,4 hPa 0,0 l/m 7,9 km/h (2 Bft) S-SO 166 0 min 0,000 mm 0,0 UV-I 0 W/m 15,4 C 15,4 C 12,9 km/h (3 Bft) 96,00 %
13.07.2016 01:34 16,2 C 95 % 1011,4 hPa 0,0 l/m 7,8 km/h (2 Bft) S 188 0 min 0,000 mm 0,0 UV-I 0 W/m 15,4 C 15,5 C 12,9 km/h (3 Bft) 100,00 %
13.07.2016 01:36 16,2 C 95 % 1011,3 hPa 0,0 l/m 7,5 km/h (2 Bft) S 190 0 min 0,000 mm 0,0 UV-I 0 W/m 15,4 C 15,6 C 11,3 km/h (2 Bft) 95,74 %
13.07.2016 01:38 16,2 C 95 % 1011,3 hPa 0,0 l/m 6,1 km/h (2 Bft) S 172 0 min 0,000 mm 0,0 UV-I 0 W/m 15,4 C 16,2 C 11,3 km/h (2 Bft) 97,87 %
13.07.2016 01:40 16,2 C 95 % 1011,2 hPa 0,0 l/m 5,3 km/h (1 Bft) S 169 0 min 0,000 mm 0,0 UV-I 0 W/m 15,4 C 16,2 C 8,0 km/h (2 Bft) 100,00 %
13.07.2016 01:42 16,3 C 95 % 1011,3 hPa 0,0 l/m 5,6 km/h (1 Bft) S-SO 160 0 min 0,000 mm 0,0 UV-I 0 W/m 15,5 C 16,3 C 9,7 km/h (2 Bft) 100,00 %
13.07.2016 01:44 16,3 C 95 % 1011,4 hPa 0,0 l/m 5,9 km/h (2 Bft) S 185 0 min 0,000 mm 0,0 UV-I 0 W/m 15,5 C 16,3 C 9,7 km/h (2 Bft) 100,00 %
13.07.2016 01:46 16,3 C 95 % 1011,3 hPa 0,0 l/m 5,5 km/h (1 Bft) S 170 0 min 0,000 mm 0,0 UV-I 0 W/m 15,5 C 16,3 C 9,7 km/h (2 Bft) 100,00 %
13.07.2016 01:48 16,3 C 95 % 1011,3 hPa 0,0 l/m 5,8 km/h (2 Bft) S-SW 195 0 min 0,000 mm 0,0 UV-I 0 W/m 15,5 C 16,3 C 9,7 km/h (2 Bft) 96,00 %
13.07.2016 01:50 16,3 C 95 % 1011,2 hPa 0,0 l/m 6,1 km/h (2 Bft) S 171 0 min 0,000 mm 0,0 UV-I 0 W/m 15,5 C 16,3 C 11,3 km/h (2 Bft) 100,00 %
13.07.2016 01:52 16,3 C 95 % 1011,2 hPa 0,0 l/m 6,0 km/h (2 Bft) S 180 0 min 0,000 mm 0,0 UV-I 0 W/m 15,5 C 16,3 C 9,7 km/h (2 Bft) 100,00 %
13.07.2016 01:54 16,3 C 95 % 1011,2 hPa 0,0 l/m 4,2 km/h (1 Bft) S 180 0 min 0,000 mm 0,0 UV-I 0 W/m 15,5 C 16,3 C 8,0 km/h (2 Bft) 97,56 %
13.07.2016 01:56 16,3 C 95 % 1011,1 hPa 0,0 l/m 3,3 km/h (1 Bft) S-SO 167 0 min 0,000 mm 0,0 UV-I 0 W/m 15,5 C 16,3 C 6,4 km/h (2 Bft) 98,00 %
13.07.2016 01:58 16,3 C 95 % 1011,1 hPa 0,0 l/m 3,3 km/h (1 Bft) S-SO 167 0 min 0,000 mm 0,0 UV-I 0 W/m 15,5 C 16,3 C 6,4 km/h (2 Bft) 100,00 %
13.07.2016 02:00 16,3 C 95 % 1011,1 hPa 0,0 l/m 5,4 km/h (1 Bft) S-SW 201 0 min 0,000 mm 0,0 UV-I 0 W/m 15,5 C 16,3 C 8,0 km/h (2 Bft) 100,00 %
13.07.2016 02:02 16,3 C 95 % 1011,1 hPa 0,0 l/m 4,1 km/h (1 Bft) SW 218 0 min 0,000 mm 0,0 UV-I 0 W/m 15,5 C 16,3 C 6,4 km/h (2 Bft) 97,87 %
13.07.2016 02:04 16,3 C 95 % 1011,2 hPa 0,0 l/m 4,4 km/h (1 Bft) SW 227 0 min 0,000 mm 0,0 UV-I 0 W/m 15,5 C 16,3 C 6,4 km/h (2 Bft) 100,00 %
13.07.2016 02:06 16,3 C 95 % 1011,2 hPa 0,0 l/m 4,1 km/h (1 Bft) W 259 0 min 0,000 mm 0,0 UV-I 0 W/m 15,5 C 16,3 C 6,4 km/h (2 Bft) 100,00 %
13.07.2016 02:08 16,3 C 95 % 1011,2 hPa 0,0 l/m 4,2 km/h (1 Bft) W 261 0 min 0,000 mm 0,0 UV-I 0 W/m 15,5 C 16,3 C 6,4 km/h (2 Bft) 100,00 %
13.07.2016 02:10 16,3 C 96 % 1011,2 hPa 0,0 l/m 3,8 km/h (1 Bft) W 260 0 min 0,000 mm 0,0 UV-I 0 W/m 15,7 C 16,3 C 6,4 km/h (2 Bft) 100,00 %
13.07.2016 02:12 16,3 C 96 % 1011,3 hPa 0,0 l/m 2,8 km/h (1 Bft) W-SW 257 0 min 0,000 mm 0,0 UV-I 0 W/m 15,7 C 16,3 C 4,8 km/h (1 Bft) 100,00 %
13.07.2016 02:14 16,3 C 96 % 1011,2 hPa 0,0 l/m 4,2 km/h (1 Bft) W-SW 245 0 min 0,000 mm 0,0 UV-I 0 W/m 15,7 C 16,3 C 6,4 km/h (2 Bft) 100,00 %
13.07.2016 02:16 16,3 C 96 % 1011,3 hPa 0,0 l/m 2,8 km/h (1 Bft) W-SW 242 0 min 0,000 mm 0,0 UV-I 0 W/m 15,7 C 16,3 C 4,8 km/h (1 Bft) 98,00 %
13.07.2016 02:18 16,3 C 96 % 1011,3 hPa 0,0 l/m 2,7 km/h (1 Bft) W-SW 242 0 min 0,000 mm 0,0 UV-I 0 W/m 15,7 C 16,3 C 3,2 km/h (1 Bft) 100,00 %
13.07.2016 02:20 16,3 C 96 % 1011,3 hPa 0,0 l/m 4,0 km/h (1 Bft) W-SW 245 0 min 0,000 mm 0,0 UV-I 0 W/m 15,7 C 16,3 C 8,0 km/h (2 Bft) 100,00 %
13.07.2016 02:22 16,3 C 96 % 1011,3 hPa 0,0 l/m 3,6 km/h (1 Bft) W-NW 284 0 min 0,000 mm 0,0 UV-I 0 W/m 15,7 C 16,3 C 4,8 km/h (1 Bft) 100,00 %
13.07.2016 02:24 16,3 C 96 % 1011,2 hPa 0,0 l/m 3,9 km/h (1 Bft) W 261 0 min 0,000 mm 0,0 UV-I 0 W/m 15,7 C 16,3 C 4,8 km/h (1 Bft) 100,00 %
13.07.2016 02:26 16,3 C 96 % 1011,2 hPa 0,0 l/m 3,0 km/h (1 Bft) W 260 0 min 0,000 mm 0,0 UV-I 0 W/m 15,7 C 16,3 C 4,8 km/h (1 Bft) 100,00 %
13.07.2016 02:28 16,2 C 96 % 1011,2 hPa 0,0 l/m 1,8 km/h (1 Bft) W-SW 257 0 min 0,000 mm 0,0 UV-I 0 W/m 15,6 C 16,2 C 4,8 km/h (1 Bft) 97,37 %
13.07.2016 02:30 16,2 C 96 % 1011,2 hPa 0,0 l/m 1,9 km/h (1 Bft) S-SW 211 0 min 0,000 mm 0,0 UV-I 0 W/m 15,6 C 16,2 C 4,8 km/h (1 Bft) 100,00 %
13.07.2016 02:32 16,2 C 96 % 1011,1 hPa 0,0 l/m 3,1 km/h (1 Bft) S-SW 211 0 min 0,000 mm 0,0 UV-I 0 W/m 15,6 C 16,2 C 4,8 km/h (1 Bft) 97,87 %
13.07.2016 02:34 16,2 C 96 % 1011,1 hPa 0,0 l/m 2,9 km/h (1 Bft) S-SW 211 0 min 0,000 mm 0,0 UV-I 0 W/m 15,6 C 16,2 C 4,8 km/h (1 Bft) 100,00 %
13.07.2016 02:36 16,2 C 96 % 1011,1 hPa 0,0 l/m 2,3 km/h (1 Bft) S-SW 211 0 min 0,000 mm 0,0 UV-I 0 W/m 15,6 C 16,2 C 3,2 km/h (1 Bft) 100,00 %
13.07.2016 02:38 16,2 C 96 % 1011,0 hPa 0,0 l/m 1,6 km/h (1 Bft) S-SW 211 0 min 0,000 mm 0,0 UV-I 0 W/m 15,6 C 16,2 C 3,2 km/h (1 Bft) 98,00 %
13.07.2016 02:40 16,2 C 96 % 1011,0 hPa 0,0 l/m 1,6 km/h (1 Bft) S-SW 211 0 min 0,000 mm 0,0 UV-I 0 W/m 15,6 C 16,2 C 3,2 km/h (1 Bft) 97,37 %
13.07.2016 02:42 16,2 C 96 % 1011,1 hPa 0,0 l/m 2,6 km/h (1 Bft) S-SW 211 0 min 0,000 mm 0,0 UV-I 0 W/m 15,6 C 16,2 C 3,2 km/h (1 Bft) 100,00 %
13.07.2016 02:44 16,2 C 96 % 1011,0 hPa 0,0 l/m 2,0 km/h (1 Bft) S-SW 211 0 min 0,000 mm 0,0 UV-I 0 W/m 15,6 C 16,2 C 3,2 km/h (1 Bft) 98,00 %
13.07.2016 02:46 16,2 C 96 % 1011,0 hPa 0,0 l/m 2,4 km/h (1 Bft) S-SW 211 0 min 0,000 mm 0,0 UV-I 0 W/m 15,6 C 16,2 C 3,2 km/h (1 Bft) 100,00 %
13.07.2016 02:48 16,2 C 96 % 1011,0 hPa 0,0 l/m 2,7 km/h (1 Bft) S-SW 211 0 min 0,000 mm 0,0 UV-I 0 W/m 15,6 C 16,2 C 3,2 km/h (1 Bft) 97,87 %
13.07.2016 02:50 16,2 C 96 % 1011,0 hPa 0,0 l/m 3,0 km/h (1 Bft) S-SW 211 0 min 0,000 mm 0,0 UV-I 0 W/m 15,6 C 16,2 C 4,8 km/h (1 Bft) 98,00 %
13.07.2016 02:52 16,2 C 96 % 1011,0 hPa 0,0 l/m 2,6 km/h (1 Bft) S-SW 211 0 min 0,000 mm 0,0 UV-I 0 W/m 15,6 C 16,2 C 3,2 km/h (1 Bft) 95,74 %
13.07.2016 02:54 16,2 C 96 % 1011,0 hPa 0,0 l/m 2,6 km/h (1 Bft) S-SW 211 0 min 0,000 mm 0,0 UV-I 0 W/m 15,6 C 16,2 C 3,2 km/h (1 Bft) 100,00 %
13.07.2016 02:56 16,2 C 96 % 1011,0 hPa 0,0 l/m 1,6 km/h (1 Bft) S-SW 211 0 min 0,000 mm 0,0 UV-I 0 W/m 15,6 C 16,2 C 3,2 km/h (1 Bft) 100,00 %
13.07.2016 02:58 16,2 C 96 % 1011,0 hPa 0,0 l/m 1,9 km/h (1 Bft) S-SW 196 0 min 0,000 mm 0,0 UV-I 0 W/m 15,6 C 16,2 C 4,8 km/h (1 Bft) 100,00 %
13.07.2016 03:00 16,2 C 96 % 1011,0 hPa 0,0 l/m 2,0 km/h (1 Bft) S-SW 194 0 min 0,000 mm 0,0 UV-I 0 W/m 15,6 C 16,2 C 4,8 km/h (1 Bft) 100,00 %
13.07.2016 03:02 16,2 C 96 % 1010,9 hPa 0,0 l/m 2,6 km/h (1 Bft) S 184 0 min 0,000 mm 0,0 UV-I 0 W/m 15,6 C 16,2 C 6,4 km/h (2 Bft) 96,00 %
13.07.2016 03:04 16,2 C 96 % 1010,8 hPa 0,0 l/m 1,6 km/h (1 Bft) S 184 0 min 0,000 mm 0,0 UV-I 0 W/m 15,6 C 16,2 C 3,2 km/h (1 Bft) 98,00 %
13.07.2016 03:06 16,1 C 96 % 1010,8 hPa 0,0 l/m 1,3 km/h (1 Bft) S 184 0 min 0,000 mm 0,0 UV-I 0 W/m 15,5 C 16,1 C 3,2 km/h (1 Bft) 97,87 %
13.07.2016 03:08 16,1 C 96 % 1010,8 hPa 0,0 l/m 3,0 km/h (1 Bft) S 184 0 min 0,000 mm 0,0 UV-I 0 W/m 15,5 C 16,1 C 4,8 km/h (1 Bft) 96,00 %
13.07.2016 03:10 16,1 C 96 % 1010,9 hPa 0,0 l/m 3,2 km/h (1 Bft) S 184 0 min 0,000 mm 0,0 UV-I 0 W/m 15,5 C 16,1 C 4,8 km/h (1 Bft) 98,00 %
13.07.2016 03:12 16,1 C 96 % 1010,9 hPa 0,0 l/m 4,5 km/h (1 Bft) S 184 0 min 0,000 mm 0,0 UV-I 0 W/m 15,5 C 16,1 C 6,4 km/h (2 Bft) 94,74 %
13.07.2016 03:14 16,1 C 96 % 1010,9 hPa 0,0 l/m 4,2 km/h (1 Bft) S 179 0 min 0,000 mm 0,0 UV-I 0 W/m 15,5 C 16,1 C 6,4 km/h (2 Bft) 97,87 %
13.07.2016 03:16 16,1 C 96 % 1010,9 hPa 0,0 l/m 4,2 km/h (1 Bft) S 172 0 min 0,000 mm 0,0 UV-I 0 W/m 15,5 C 16,1 C 6,4 km/h (2 Bft) 94,00 %
13.07.2016 03:18 16,1 C 96 % 1010,9 hPa 0,0 l/m 5,5 km/h (1 Bft) S 181 0 min 0,000 mm 0,0 UV-I 0 W/m 15,5 C 16,1 C 8,0 km/h (2 Bft) 96,00 %
13.07.2016 03:20 16,1 C 96 % 1011,0 hPa 0,0 l/m 4,1 km/h (1 Bft) S-SO 167 0 min 0,000 mm 0,0 UV-I 0 W/m 15,5 C 16,1 C 8,0 km/h (2 Bft) 95,74 %
13.07.2016 03:22 16,1 C 96 % 1011,0 hPa 0,0 l/m 5,6 km/h (1 Bft) S-SW 204 0 min 0,000 mm 0,0 UV-I 0 W/m 15,5 C 16,1 C 8,0 km/h (2 Bft) 97,37 %
13.07.2016 03:24 16,1 C 96 % 1011,0 hPa 0,0 l/m 4,5 km/h (1 Bft) S-SW 205 0 min 0,000 mm 0,0 UV-I 0 W/m 15,5 C 16,1 C 6,4 km/h (2 Bft) 94,34 %
13.07.2016 03:26 16,1 C 96 % 1010,9 hPa 0,0 l/m 3,1 km/h (1 Bft) S-SW 205 0 min 0,000 mm 0,0 UV-I 0 W/m 15,5 C 16,1 C 4,8 km/h (1 Bft) 98,04 %
13.07.2016 03:28 16,1 C 96 % 1011,0 hPa 0,0 l/m 5,0 km/h (1 Bft) S-SW 205 0 min 0,000 mm 0,0 UV-I 0 W/m 15,5 C 16,1 C 8,0 km/h (2 Bft) 94,44 %
13.07.2016 03:30 16,2 C 96 % 1011,0 hPa 0,0 l/m 5,6 km/h (1 Bft) SW 215 0 min 0,000 mm 0,0 UV-I 0 W/m 15,6 C 16,2 C 8,0 km/h (2 Bft) 96,00 %
13.07.2016 03:32 16,1 C 96 % 1011,0 hPa 0,0 l/m 4,7 km/h (1 Bft) SW 223 0 min 0,000 mm 0,0 UV-I 0 W/m 15,5 C 16,1 C 6,4 km/h (2 Bft) 98,11 %
13.07.2016 03:34 16,1 C 96 % 1011,0 hPa 0,0 l/m 3,9 km/h (1 Bft) SW 217 0 min 0,000 mm 0,0 UV-I 0 W/m 15,5 C 16,1 C 4,8 km/h (1 Bft) 94,74 %
13.07.2016 03:36 16,1 C 96 % 1011,0 hPa 0,0 l/m 3,9 km/h (1 Bft) SW 234 0 min 0,000 mm 0,0 UV-I 0 W/m 15,5 C 16,1 C 4,8 km/h (1 Bft) 98,00 %
13.07.2016 03:38 16,1 C 97 % 1011,0 hPa 0,0 l/m 3,5 km/h (1 Bft) S-SW 209 0 min 0,000 mm 0,0 UV-I 0 W/m 15,6 C 16,1 C 6,4 km/h (2 Bft) 97,37 %
13.07.2016 03:40 16,1 C 96 % 1011,0 hPa 0,0 l/m 3,0 km/h (1 Bft) S 189 0 min 0,000 mm 0,0 UV-I 0 W/m 15,5 C 16,1 C 4,8 km/h (1 Bft) 100,00 %
13.07.2016 03:42 16,1 C 97 % 1010,9 hPa 0,0 l/m 3,5 km/h (1 Bft) S 188 0 min 0,000 mm 0,0 UV-I 0 W/m 15,6 C 16,1 C 4,8 km/h (1 Bft) 100,00 %
13.07.2016 03:44 16,2 C 97 % 1010,9 hPa 0,0 l/m 2,9 km/h (1 Bft) S 188 0 min 0,000 mm 0,0 UV-I 0 W/m 15,7 C 16,2 C 4,8 km/h (1 Bft) 98,00 %
13.07.2016 03:46 16,2 C 96 % 1010,8 hPa 0,0 l/m 2,1 km/h (1 Bft) S 188 0 min 0,000 mm 0,0 UV-I 0 W/m 15,6 C 16,2 C 3,2 km/h (1 Bft) 100,00 %
13.07.2016 03:48 16,2 C 97 % 1010,8 hPa 0,0 l/m 2,5 km/h (1 Bft) S 188 0 min 0,000 mm 0,0 UV-I 0 W/m 15,7 C 16,2 C 3,2 km/h (1 Bft) 100,00 %
13.07.2016 03:50 16,2 C 97 % 1010,8 hPa 0,0 l/m 2,1 km/h (1 Bft) S 188 0 min 0,000 mm 0,0 UV-I 0 W/m 15,7 C 16,2 C 3,2 km/h (1 Bft) 98,00 %
13.07.2016 03:52 16,2 C 96 % 1010,8 hPa 0,0 l/m 2,2 km/h (1 Bft) S 188 0 min 0,000 mm 0,0 UV-I 0 W/m 15,6 C 16,2 C 3,2 km/h (1 Bft) 100,00 %
13.07.2016 03:54 16,2 C 96 % 1010,9 hPa 0,0 l/m 2,5 km/h (1 Bft) S 188 0 min 0,000 mm 0,0 UV-I 0 W/m 15,6 C 16,2 C 3,2 km/h (1 Bft) 97,56 %
13.07.2016 03:56 16,2 C 96 % 1011,0 hPa 0,0 l/m 3,8 km/h (1 Bft) S 188 0 min 0,000 mm 0,0 UV-I 0 W/m 15,6 C 16,2 C 6,4 km/h (2 Bft) 97,87 %
13.07.2016 03:58 16,2 C 96 % 1011,0 hPa 0,0 l/m 4,5 km/h (1 Bft) S-SW 195 0 min 0,000 mm 0,0 UV-I 0 W/m 15,6 C 16,2 C 6,4 km/h (2 Bft) 100,00 %
13.07.2016 04:00 16,2 C 96 % 1011,1 hPa 0,0 l/m 3,8 km/h (1 Bft) S-SW 196 0 min 0,000 mm 0,0 UV-I 0 W/m 15,6 C 16,2 C 6,4 km/h (2 Bft) 98,00 %
13.07.2016 04:05 16,2 C 96 % 1011,2 hPa 0,0 l/m 4,6 km/h (1 Bft) S-SW 194 0 min 0,000 mm 0,0 UV-I 0 W/m 15,6 C 16,2 C 8,0 km/h (2 Bft) 98,36 %
13.07.2016 04:06 16,2 C 96 % 1011,2 hPa 0,0 l/m 8,0 km/h (2 Bft) S-SW 198 0 min 0,000 mm 0,0 UV-I 0 W/m 15,6 C 15,4 C 9,7 km/h (2 Bft) 100,00 %
13.07.2016 04:08 16,2 C 96 % 1011,3 hPa 0,0 l/m 6,4 km/h (2 Bft) S-SW 193 0 min 0,000 mm 0,0 UV-I 0 W/m 15,6 C 16,2 C 8,0 km/h (2 Bft) 100,00 %
13.07.2016 04:10 16,2 C 96 % 1011,4 hPa 0,2 l/m 6,9 km/h (2 Bft) S-SW 209 0 min 0,000 mm 0,0 UV-I 0 W/m 15,6 C 15,9 C 9,7 km/h (2 Bft) 100,00 %
13.07.2016 04:12 16,2 C 96 % 1011,5 hPa 0,0 l/m 7,1 km/h (2 Bft) S-SW 198 0 min 0,000 mm 0,0 UV-I 0 W/m 15,6 C 15,8 C 9,7 km/h (2 Bft) 100,00 %
13.07.2016 04:14 16,2 C 96 % 1011,5 hPa 0,2 l/m 7,1 km/h (2 Bft) S 178 0 min 0,000 mm 0,0 UV-I 0 W/m 15,6 C 15,8 C 9,7 km/h (2 Bft) 100,00 %
13.07.2016 04:16 16,2 C 96 % 1011,5 hPa 0,2 l/m 6,2 km/h (2 Bft) S-SW 204 0 min 0,000 mm 0,0 UV-I 0 W/m 15,6 C 16,2 C 9,7 km/h (2 Bft) 97,87 %
13.07.2016 04:18 16,2 C 96 % 1011,5 hPa 0,2 l/m 5,1 km/h (1 Bft) SW 219 0 min 0,000 mm 0,0 UV-I 0 W/m 15,6 C 16,2 C 6,4 km/h (2 Bft) 98,00 %
13.07.2016 04:20 16,2 C 96 % 1011,5 hPa 0,2 l/m 4,4 km/h (1 Bft) S-SW 196 0 min 0,000 mm 0,0 UV-I 0 W/m 15,6 C 16,2 C 6,4 km/h (2 Bft) 98,11 %
13.07.2016 04:22 16,2 C 96 % 1011,5 hPa 0,2 l/m 5,4 km/h (1 Bft) S 184 0 min 0,000 mm 0,0 UV-I 0 W/m 15,6 C 16,2 C 9,7 km/h (2 Bft) 97,44 %
13.07.2016 04:24 16,2 C 96 % 1011,5 hPa 0,2 l/m 4,2 km/h (1 Bft) S 169 0 min 0,000 mm 0,0 UV-I 0 W/m 15,6 C 16,2 C 6,4 km/h (2 Bft) 100,00 %
13.07.2016 04:26 16,2 C 96 % 1011,4 hPa 0,0 l/m 5,0 km/h (1 Bft) SW 222 0 min 0,000 mm 0,0 UV-I 0 W/m 15,6 C 16,2 C 8,0 km/h (2 Bft) 98,00 %
13.07.2016 04:28 16,2 C 96 % 1011,4 hPa 0,4 l/m 4,1 km/h (1 Bft) S 182 0 min 0,000 mm 0,0 UV-I 0 W/m 15,6 C 16,2 C 6,4 km/h (2 Bft) 100,00 %
13.07.2016 04:30 16,2 C 96 % 1011,3 hPa 0,0 l/m 4,4 km/h (1 Bft) SW 215 0 min 0,000 mm 0,0 UV-I 0 W/m 15,6 C 16,2 C 6,4 km/h (2 Bft) 100,00 %
13.07.2016 04:32 16,2 C 96 % 1011,3 hPa 0,2 l/m 3,0 km/h (1 Bft) S-SW 207 0 min 0,000 mm 0,0 UV-I 0 W/m 15,6 C 16,2 C 6,4 km/h (2 Bft) 98,04 %
13.07.2016 04:34 16,2 C 96 % 1011,1 hPa 0,0 l/m 2,1 km/h (1 Bft) S-SW 207 0 min 0,000 mm 0,0 UV-I 0 W/m 15,6 C 16,2 C 4,8 km/h (1 Bft) 100,00 %
13.07.2016 04:36 16,2 C 96 % 1011,1 hPa 0,0 l/m 1,8 km/h (1 Bft) S-SW 207 0 min 0,000 mm 0,0 UV-I 0 W/m 15,6 C 16,2 C 3,2 km/h (1 Bft) 100,00 %
13.07.2016 04:38 16,1 C 96 % 1011,1 hPa 0,0 l/m 0,9 km/h (0 Bft) S-SW 207 0 min 0,000 mm 0,0 UV-I 0 W/m 15,5 C 16,1 C 3,2 km/h (1 Bft) 98,00 %
13.07.2016 04:40 16,1 C 96 % 1011,1 hPa 0,0 l/m 2,2 km/h (1 Bft) S-SW 207 0 min 0,000 mm 0,0 UV-I 0 W/m 15,5 C 16,1 C 3,2 km/h (1 Bft) 100,00 %
13.07.2016 04:42 16,1 C 96 % 1011,1 hPa 0,0 l/m 3,0 km/h (1 Bft) S-SW 207 0 min 0,000 mm 0,0 UV-I 0 W/m 15,5 C 16,1 C 3,2 km/h (1 Bft) 100,00 %
13.07.2016 04:44 16,1 C 96 % 1011,2 hPa 0,2 l/m 2,1 km/h (1 Bft) S-SW 207 0 min 0,000 mm 0,0 UV-I 0 W/m 15,5 C 16,1 C 3,2 km/h (1 Bft) 100,00 %
13.07.2016 04:46 16,2 C 96 % 1011,2 hPa 0,0 l/m 2,0 km/h (1 Bft) S-SW 207 0 min 0,000 mm 0,0 UV-I 0 W/m 15,6 C 16,2 C 3,2 km/h (1 Bft) 100,00 %
13.07.2016 04:48 16,2 C 96 % 1011,3 hPa 0,0 l/m 3,7 km/h (1 Bft) W 264 0 min 0,000 mm 0,0 UV-I 0 W/m 15,6 C 16,2 C 4,8 km/h (1 Bft) 100,00 %
13.07.2016 04:50 16,2 C 96 % 1011,3 hPa 0,0 l/m 2,5 km/h (1 Bft) W 265 0 min 0,000 mm 0,0 UV-I 0 W/m 15,6 C 16,2 C 4,8 km/h (1 Bft) 100,00 %
13.07.2016 04:52 16,2 C 96 % 1011,4 hPa 0,0 l/m 3,4 km/h (1 Bft) W 264 0 min 0,000 mm 0,0 UV-I 0 W/m 15,6 C 16,2 C 4,8 km/h (1 Bft) 97,44 %
13.07.2016 04:54 16,1 C 96 % 1011,4 hPa 0,2 l/m 4,9 km/h (1 Bft) W-SW 244 0 min 0,000 mm 0,0 UV-I 0 W/m 15,5 C 16,1 C 6,4 km/h (2 Bft) 100,00 %
13.07.2016 04:56 16,1 C 96 % 1011,4 hPa 0,0 l/m 6,0 km/h (2 Bft) W-SW 251 0 min 0,000 mm 0,0 UV-I 0 W/m 15,5 C 16,1 C 8,0 km/h (2 Bft) 100,00 %
13.07.2016 04:58 16,1 C 96 % 1011,4 hPa 0,0 l/m 5,9 km/h (2 Bft) W 273 0 min 0,000 mm 0,0 UV-I 0 W/m 15,5 C 16,1 C 9,7 km/h (2 Bft) 100,00 %
13.07.2016 05:00 16,1 C 96 % 1011,3 hPa 0,0 l/m 4,5 km/h (1 Bft) W-SW 258 0 min 0,000 mm 0,0 UV-I 0 W/m 15,5 C 16,1 C 6,4 km/h (2 Bft) 96,23 %
13.07.2016 05:02 16,1 C 96 % 1011,3 hPa 0,0 l/m 1,9 km/h (1 Bft) W-SW 258 0 min 0,000 mm 0,0 UV-I 0 W/m 15,5 C 16,1 C 4,8 km/h (1 Bft) 97,56 %
13.07.2016 05:04 16,1 C 96 % 1011,3 hPa 0,0 l/m 2,9 km/h (1 Bft) W-SW 258 0 min 0,000 mm 0,0 UV-I 0 W/m 15,5 C 16,1 C 4,8 km/h (1 Bft) 98,00 %
13.07.2016 05:06 16,1 C 96 % 1011,2 hPa 0,0 l/m 3,3 km/h (1 Bft) W-SW 258 0 min 0,000 mm 0,0 UV-I 0 W/m 15,5 C 16,1 C 4,8 km/h (1 Bft) 97,37 %
13.07.2016 05:08 16,1 C 96 % 1011,2 hPa 0,0 l/m 2,1 km/h (1 Bft) W 268 0 min 0,000 mm 0,0 UV-I 0 W/m 15,5 C 16,1 C 4,8 km/h (1 Bft) 98,00 %
13.07.2016 05:10 16,1 C 97 % 1011,2 hPa 0,0 l/m 4,2 km/h (1 Bft) W 267 0 min 0,000 mm 0,0 UV-I 0 W/m 15,6 C 16,1 C 6,4 km/h (2 Bft) 96,00 %
13.07.2016 05:12 16,1 C 97 % 1011,3 hPa 0,0 l/m 3,3 km/h (1 Bft) W-SW 243 0 min 0,000 mm 0,0 UV-I 0 W/m 15,6 C 16,1 C 4,8 km/h (1 Bft) 97,87 %
13.07.2016 05:14 16,1 C 97 % 1011,3 hPa 0,0 l/m 3,1 km/h (1 Bft) W-SW 248 0 min 0,000 mm 0,0 UV-I 0 W/m 15,6 C 16,1 C 4,8 km/h (1 Bft) 98,00 %
13.07.2016 05:16 16,1 C 97 % 1011,3 hPa 0,0 l/m 4,8 km/h (1 Bft) W-SW 250 0 min 0,000 mm 0,0 UV-I 0 W/m 15,6 C 16,1 C 9,7 km/h (2 Bft) 94,74 %
13.07.2016 05:18 16,1 C 97 % 1011,3 hPa 0,0 l/m 5,1 km/h (1 Bft) W 259 0 min 0,000 mm 0,0 UV-I 0 W/m 15,6 C 16,1 C 9,7 km/h (2 Bft) 94,34 %
13.07.2016 05:20 16,1 C 97 % 1011,5 hPa 0,2 l/m 4,6 km/h (1 Bft) W 259 0 min 0,000 mm 0,0 UV-I 0 W/m 15,6 C 16,1 C 6,4 km/h (2 Bft) 100,00 %
13.07.2016 05:22 16,1 C 97 % 1011,5 hPa 0,0 l/m 4,8 km/h (1 Bft) S-SW 207 0 min 0,000 mm 0,0 UV-I 0 W/m 15,6 C 16,1 C 9,7 km/h (2 Bft) 96,23 %
13.07.2016 05:24 16,1 C 97 % 1011,6 hPa 0,0 l/m 6,4 km/h (2 Bft) W-SW 257 0 min 0,000 mm 0,0 UV-I 0 W/m 15,6 C 16,1 C 11,3 km/h (2 Bft) 97,62 %
13.07.2016 05:26 16,1 C 97 % 1011,6 hPa 0,0 l/m 8,6 km/h (2 Bft) W-SW 254 0 min 0,000 mm 0,0 UV-I 0 W/m 15,6 C 15,0 C 14,5 km/h (3 Bft) 97,37 %
13.07.2016 05:28 16,0 C 97 % 1011,5 hPa 0,0 l/m 5,9 km/h (2 Bft) W 271 0 min 0,000 mm 0,0 UV-I 3 W/m 15,5 C 16,0 C 11,3 km/h (2 Bft) 96,88 %
13.07.2016 05:30 16,0 C 97 % 1011,4 hPa 0,0 l/m 4,6 km/h (1 Bft) W-SW 238 0 min 0,000 mm 0,0 UV-I 5 W/m 15,5 C 16,0 C 6,4 km/h (2 Bft) 97,87 %
13.07.2016 05:32 16,0 C 97 % 1011,4 hPa 0,0 l/m 3,3 km/h (1 Bft) W-SW 247 0 min 0,000 mm 0,0 UV-I 5 W/m 15,5 C 16,0 C 4,8 km/h (1 Bft) 97,62 %
13.07.2016 05:34 16,0 C 97 % 1011,4 hPa 0,0 l/m 3,8 km/h (1 Bft) W-SW 240 0 min 0,000 mm 0,0 UV-I 5 W/m 15,5 C 16,0 C 4,8 km/h (1 Bft) 100,00 %
13.07.2016 05:36 16,0 C 97 % 1011,5 hPa 0,0 l/m 5,4 km/h (1 Bft) SW 236 0 min 0,000 mm 0,0 UV-I 1 W/m 15,5 C 16,0 C 11,3 km/h (2 Bft) 100,00 %
13.07.2016 05:38 16,0 C 97 % 1011,5 hPa 0,0 l/m 6,7 km/h (2 Bft) SW 227 0 min 0,000 mm 0,0 UV-I 0 W/m 15,5 C 15,8 C 11,3 km/h (2 Bft) 100,00 %
13.07.2016 05:40 16,0 C 97 % 1011,5 hPa 0,0 l/m 6,1 km/h (2 Bft) W-SW 240 0 min 0,000 mm 0,0 UV-I 3 W/m 15,5 C 16,0 C 9,7 km/h (2 Bft) 98,00 %
13.07.2016 05:42 16,0 C 97 % 1011,6 hPa 0,0 l/m 7,5 km/h (2 Bft) SW 227 0 min 0,000 mm 0,0 UV-I 5 W/m 15,5 C 15,4 C 11,3 km/h (2 Bft) 100,00 %
13.07.2016 05:44 16,0 C 97 % 1011,7 hPa 0,0 l/m 8,3 km/h (2 Bft) W-SW 242 0 min 0,000 mm 0,0 UV-I 5 W/m 15,5 C 15,0 C 12,9 km/h (3 Bft) 100,00 %
13.07.2016 05:46 16,0 C 97 % 1011,8 hPa 0,0 l/m 8,5 km/h (2 Bft) W 261 0 min 0,000 mm 0,0 UV-I 5 W/m 15,5 C 14,9 C 12,9 km/h (3 Bft) 100,00 %
13.07.2016 05:48 16,0 C 97 % 1011,8 hPa 0,2 l/m 11,1 km/h (2 Bft) W 270 0 min 0,000 mm 0,0 UV-I 5 W/m 15,5 C 13,8 C 14,5 km/h (3 Bft) 98,21 %
13.07.2016 05:50 16,0 C 97 % 1011,8 hPa 0,2 l/m 7,6 km/h (2 Bft) SW 226 0 min 0,000 mm 0,0 UV-I 5 W/m 15,5 C 15,4 C 11,3 km/h (2 Bft) 97,37 %
13.07.2016 05:52 15,9 C 97 % 1011,8 hPa 0,0 l/m 7,5 km/h (2 Bft) W-SW 250 0 min 0,000 mm 0,0 UV-I 5 W/m 15,4 C 15,3 C 11,3 km/h (2 Bft) 98,21 %
13.07.2016 05:54 15,9 C 97 % 1011,9 hPa 0,0 l/m 7,4 km/h (2 Bft) W-SW 250 0 min 0,000 mm 0,0 UV-I 1 W/m 15,4 C 15,4 C 11,3 km/h (2 Bft) 97,56 %
13.07.2016 05:56 16,0 C 97 % 1011,9 hPa 0,2 l/m 9,7 km/h (2 Bft) W-SW 250 0 min 0,000 mm 0,0 UV-I 0 W/m 15,5 C 14,4 C 12,9 km/h (3 Bft) 98,00 %
13.07.2016 05:58 16,0 C 97 % 1012,0 hPa 0,0 l/m 8,3 km/h (2 Bft) W-SW 250 0 min 0,000 mm 0,0 UV-I 0 W/m 15,5 C 15,0 C 12,9 km/h (3 Bft) 100,00 %
13.07.2016 06:00 15,9 C 97 % 1012,0 hPa 0,2 l/m 8,3 km/h (2 Bft) W-SW 254 0 min 0,000 mm 0,0 UV-I 0 W/m 15,4 C 14,9 C 12,9 km/h (3 Bft) 100,00 %
13.07.2016 06:02 15,9 C 97 % 1012,0 hPa 0,0 l/m 7,6 km/h (2 Bft) W-SW 256 0 min 0,000 mm 0,0 UV-I 0 W/m 15,4 C 15,3 C 12,9 km/h (3 Bft) 98,00 %
13.07.2016 06:04 15,9 C 97 % 1012,0 hPa 0,0 l/m 9,4 km/h (2 Bft) W-SW 246 0 min 0,000 mm 0,0 UV-I 0 W/m 15,4 C 14,4 C 12,9 km/h (3 Bft) 98,00 %
13.07.2016 06:06 15,9 C 97 % 1012,1 hPa 0,2 l/m 8,1 km/h (2 Bft) W-SW 256 0 min 0,000 mm 0,0 UV-I 0 W/m 15,4 C 15,0 C 11,3 km/h (2 Bft) 100,00 %
13.07.2016 06:08 15,9 C 97 % 1012,1 hPa 0,0 l/m 9,1 km/h (2 Bft) W-SW 242 0 min 0,000 mm 0,0 UV-I 1 W/m 15,4 C 14,5 C 16,1 km/h (3 Bft) 98,11 %
13.07.2016 06:10 15,9 C 97 % 1012,0 hPa 0,2 l/m 7,8 km/h (2 Bft) W 264 0 min 0,000 mm 0,0 UV-I 5 W/m 15,4 C 15,1 C 12,9 km/h (3 Bft) 100,00 %
13.07.2016 06:12 15,9 C 97 % 1012,1 hPa 0,0 l/m 8,9 km/h (2 Bft) W 265 0 min 0,000 mm 0,0 UV-I 5 W/m 15,4 C 14,6 C 14,5 km/h (3 Bft) 100,00 %
13.07.2016 06:14 15,9 C 97 % 1012,1 hPa 0,0 l/m 7,3 km/h (2 Bft) SW 232 0 min 0,000 mm 0,0 UV-I 5 W/m 15,4 C 15,4 C 11,3 km/h (2 Bft) 97,73 %
13.07.2016 06:16 15,9 C 97 % 1012,1 hPa 0,2 l/m 7,4 km/h (2 Bft) W-SW 250 0 min 0,000 mm 0,0 UV-I 5 W/m 15,4 C 15,4 C 11,3 km/h (2 Bft) 98,21 %
13.07.2016 06:18 15,9 C 97 % 1012,1 hPa 0,0 l/m 8,1 km/h (2 Bft) W-SW 244 0 min 0,000 mm 0,0 UV-I 5 W/m 15,4 C 15,0 C 11,3 km/h (2 Bft) 97,37 %
13.07.2016 06:20 15,8 C 97 % 1012,1 hPa 0,2 l/m 6,9 km/h (2 Bft) W-SW 250 0 min 0,000 mm 0,0 UV-I 5 W/m 15,3 C 15,5 C 9,7 km/h (2 Bft) 98,21 %
13.07.2016 06:22 15,8 C 97 % 1012,1 hPa 0,0 l/m 6,0 km/h (2 Bft) W-SW 251 0 min 0,000 mm 0,0 UV-I 6 W/m 15,3 C 15,8 C 11,3 km/h (2 Bft) 100,00 %
13.07.2016 06:24 15,9 C 97 % 1012,1 hPa 0,0 l/m 6,6 km/h (2 Bft) SW 234 0 min 0,000 mm 0,0 UV-I 8 W/m 15,4 C 15,8 C 11,3 km/h (2 Bft) 100,00 %
13.07.2016 06:26 15,8 C 97 % 1012,1 hPa 0,0 l/m 5,5 km/h (1 Bft) SW 236 0 min 0,000 mm 0,0 UV-I 11 W/m 15,3 C 15,8 C 8,0 km/h (2 Bft) 100,00 %
13.07.2016 06:28 15,8 C 96 % 1012,2 hPa 0,0 l/m 5,8 km/h (2 Bft) S-SW 202 0 min 0,000 mm 0,0 UV-I 12 W/m 15,2 C 15,8 C 8,0 km/h (2 Bft) 100,00 %
13.07.2016 06:30 15,8 C 96 % 1012,1 hPa 0,0 l/m 5,4 km/h (1 Bft) SW 223 0 min 0,000 mm 0,0 UV-I 15 W/m 15,2 C 15,8 C 8,0 km/h (2 Bft) 100,00 %
13.07.2016 06:32 15,8 C 96 % 1011,9 hPa 0,0 l/m 4,6 km/h (1 Bft) W-NW 284 0 min 0,000 mm 0,0 UV-I 17 W/m 15,2 C 15,8 C 6,4 km/h (2 Bft) 100,00 %
13.07.2016 06:34 15,8 C 96 % 1011,9 hPa 0,0 l/m 4,3 km/h (1 Bft) W 266 0 min 0,000 mm 0,0 UV-I 20 W/m 15,2 C 15,8 C 6,4 km/h (2 Bft) 98,00 %
13.07.2016 06:36 15,9 C 97 % 1012,0 hPa 0,0 l/m 4,3 km/h (1 Bft) W-SW 246 0 min 0,000 mm 0,0 UV-I 21 W/m 15,4 C 15,9 C 6,4 km/h (2 Bft) 100,00 %
13.07.2016 06:38 15,9 C 97 % 1012,1 hPa 0,0 l/m 4,5 km/h (1 Bft) W-SW 256 0 min 0,000 mm 0,0 UV-I 21 W/m 15,4 C 15,9 C 6,4 km/h (2 Bft) 100,00 %
13.07.2016 06:40 15,9 C 97 % 1012,0 hPa 0,0 l/m 2,7 km/h (1 Bft) W 265 0 min 0,000 mm 0,0 UV-I 22 W/m 15,4 C 15,9 C 4,8 km/h (1 Bft) 100,00 %
13.07.2016 06:42 15,9 C 97 % 1012,0 hPa 0,0 l/m 1,9 km/h (1 Bft) W 271 0 min 0,000 mm 0,0 UV-I 26 W/m 15,4 C 15,9 C 4,8 km/h (1 Bft) 98,00 %
13.07.2016 06:44 15,9 C 97 % 1012,0 hPa 0,2 l/m 2,1 km/h (1 Bft) W 271 0 min 0,000 mm 0,0 UV-I 30 W/m 15,4 C 15,9 C 4,8 km/h (1 Bft) 100,00 %
13.07.2016 06:46 15,9 C 97 % 1011,9 hPa 0,0 l/m 1,0 km/h (0 Bft) W 271 0 min 0,000 mm 0,0 UV-I 33 W/m 15,4 C 15,9 C 3,2 km/h (1 Bft) 100,00 %
13.07.2016 06:48 15,9 C 97 % 1012,0 hPa 0,0 l/m 3,4 km/h (1 Bft) W-SW 245 0 min 0,000 mm 0,0 UV-I 39 W/m 15,4 C 15,9 C 6,4 km/h (2 Bft) 100,00 %
13.07.2016 06:50 15,9 C 97 % 1012,1 hPa 0,0 l/m 4,2 km/h (1 Bft) W-SW 244 0 min 0,000 mm 0,0 UV-I 41 W/m 15,4 C 15,9 C 6,4 km/h (2 Bft) 98,21 %
13.07.2016 06:52 15,9 C 97 % 1012,0 hPa 0,0 l/m 4,6 km/h (1 Bft) SW 235 0 min 0,000 mm 0,0 UV-I 42 W/m 15,4 C 15,9 C 6,4 km/h (2 Bft) 100,00 %
13.07.2016 06:54 15,9 C 97 % 1012,0 hPa 0,0 l/m 4,2 km/h (1 Bft) W-SW 246 0 min 0,000 mm 0,0 UV-I 46 W/m 15,4 C 15,9 C 6,4 km/h (2 Bft) 100,00 %
13.07.2016 06:56 16,0 C 97 % 1012,0 hPa 0,0 l/m 4,1 km/h (1 Bft) W 259 0 min 0,000 mm 0,0 UV-I 49 W/m 15,5 C 16,0 C 6,4 km/h (2 Bft) 100,00 %
13.07.2016 06:58 16,0 C 97 % 1012,1 hPa 0,0 l/m 6,1 km/h (2 Bft) W-SW 247 0 min 0,000 mm 0,0 UV-I 52 W/m 15,5 C 16,0 C 11,3 km/h (2 Bft) 100,00 %
13.07.2016 07:00 16,0 C 97 % 1012,1 hPa 0,0 l/m 5,6 km/h (1 Bft) W-SW 251 0 min 0,025 mm 0,0 UV-I 53 W/m 15,5 C 16,0 C 6,4 km/h (2 Bft) 98,11 %
13.07.2016 07:02 16,0 C 97 % 1012,2 hPa 0,0 l/m 5,9 km/h (2 Bft) W-SW 247 0 min 0,000 mm 0,0 UV-I 53 W/m 15,5 C 16,0 C 8,0 km/h (2 Bft) 97,56 %
13.07.2016 07:04 16,1 C 97 % 1012,2 hPa 0,0 l/m 4,8 km/h (1 Bft) SW 221 0 min 0,000 mm 0,0 UV-I 53 W/m 15,6 C 16,1 C 8,0 km/h (2 Bft) 97,87 %
13.07.2016 07:06 16,1 C 97 % 1012,2 hPa 0,0 l/m 4,0 km/h (1 Bft) SW 230 0 min 0,000 mm 0,0 UV-I 59 W/m 15,6 C 16,1 C 6,4 km/h (2 Bft) 96,23 %
13.07.2016 07:08 16,1 C 97 % 1012,2 hPa 0,0 l/m 5,9 km/h (2 Bft) SW 229 0 min 0,000 mm 0,0 UV-I 73 W/m 15,6 C 16,1 C 8,0 km/h (2 Bft) 96,00 %
13.07.2016 07:10 16,1 C 97 % 1012,2 hPa 0,0 l/m 6,5 km/h (2 Bft) S-SW 213 0 min 0,000 mm 0,0 UV-I 85 W/m 15,6 C 16,1 C 9,7 km/h (2 Bft) 97,56 %
13.07.2016 07:12 16,1 C 97 % 1012,2 hPa 0,0 l/m 7,3 km/h (2 Bft) W-SW 241 0 min 0,000 mm 0,0 UV-I 82 W/m 15,6 C 15,6 C 9,7 km/h (2 Bft) 95,12 %
13.07.2016 07:14 16,1 C 97 % 1012,2 hPa 0,0 l/m 6,1 km/h (2 Bft) SW 236 0 min 0,000 mm 0,0 UV-I 85 W/m 15,6 C 16,1 C 9,7 km/h (2 Bft) 96,23 %
13.07.2016 07:16 16,1 C 97 % 1012,2 hPa 0,0 l/m 5,3 km/h (1 Bft) SW 225 0 min 0,000 mm 0,0 UV-I 91 W/m 15,6 C 16,1 C 8,0 km/h (2 Bft) 96,23 %
13.07.2016 07:18 16,1 C 96 % 1012,2 hPa 0,0 l/m 5,9 km/h (2 Bft) SW 234 0 min 0,000 mm 0,0 UV-I 98 W/m 15,5 C 16,1 C 9,7 km/h (2 Bft) 97,73 %
13.07.2016 07:20 16,1 C 96 % 1012,2 hPa 0,0 l/m 6,9 km/h (2 Bft) S-SW 205 0 min 0,000 mm 0,0 UV-I 101 W/m 15,5 C 15,8 C 11,3 km/h (2 Bft) 97,44 %
13.07.2016 07:22 16,1 C 96 % 1012,1 hPa 0,0 l/m 6,3 km/h (2 Bft) W-SW 258 0 min 0,000 mm 0,0 UV-I 103 W/m 15,5 C 16,1 C 11,3 km/h (2 Bft) 96,15 %
13.07.2016 07:24 16,2 C 96 % 1012,1 hPa 0,0 l/m 5,7 km/h (1 Bft) SW 232 0 min 0,000 mm 0,0 UV-I 108 W/m 15,6 C 16,2 C 9,7 km/h (2 Bft) 98,00 %
13.07.2016 07:26 16,2 C 97 % 1012,2 hPa 0,0 l/m 5,3 km/h (1 Bft) SW 216 0 min 0,000 mm 0,0 UV-I 103 W/m 15,7 C 16,2 C 8,0 km/h (2 Bft) 97,62 %
13.07.2016 07:28 16,2 C 96 % 1012,4 hPa 0,0 l/m 6,7 km/h (2 Bft) S-SW 196 0 min 0,000 mm 0,0 UV-I 90 W/m 15,6 C 16,1 C 11,3 km/h (2 Bft) 97,73 %
13.07.2016 07:30 16,2 C 96 % 1012,4 hPa 0,0 l/m 8,3 km/h (2 Bft) SW 225 0 min 0,000 mm 0,0 UV-I 81 W/m 15,6 C 15,2 C 11,3 km/h (2 Bft) 98,00 %
13.07.2016 07:32 16,2 C 96 % 1012,5 hPa 0,0 l/m 8,6 km/h (2 Bft) W-SW 255 0 min 0,000 mm 0,0 UV-I 92 W/m 15,6 C 15,1 C 12,9 km/h (3 Bft) 98,11 %
13.07.2016 07:34 16,2 C 96 % 1012,4 hPa 0,0 l/m 6,8 km/h (2 Bft) SW 232 0 min 0,000 mm 0,0 UV-I 113 W/m 15,6 C 16,0 C 12,9 km/h (3 Bft) 100,00 %
13.07.2016 07:36 16,3 C 96 % 1012,5 hPa 0,0 l/m 7,4 km/h (2 Bft) SW 234 0 min 0,000 mm 0,0 UV-I 128 W/m 15,7 C 15,8 C 16,1 km/h (3 Bft) 96,30 %
13.07.2016 07:38 16,3 C 96 % 1012,5 hPa 0,0 l/m 6,6 km/h (2 Bft) S-SW 203 0 min 0,000 mm 0,0 UV-I 127 W/m 15,7 C 16,2 C 11,3 km/h (2 Bft) 100,00 %
13.07.2016 07:40 16,3 C 96 % 1012,6 hPa 0,0 l/m 7,6 km/h (2 Bft) SW 230 0 min 0,000 mm 0,0 UV-I 111 W/m 15,7 C 15,7 C 14,5 km/h (3 Bft) 100,00 %
13.07.2016 07:42 16,3 C 96 % 1012,6 hPa 0,0 l/m 8,4 km/h (2 Bft) SW 234 0 min 0,000 mm 0,0 UV-I 103 W/m 15,7 C 15,3 C 12,9 km/h (3 Bft) 97,87 %
13.07.2016 07:44 16,3 C 96 % 1012,6 hPa 0,0 l/m 7,1 km/h (2 Bft) SW 227 0 min 0,000 mm 0,0 UV-I 99 W/m 15,7 C 15,9 C 12,9 km/h (3 Bft) 95,74 %
13.07.2016 07:46 16,4 C 96 % 1012,6 hPa 0,0 l/m 3,9 km/h (1 Bft) SW 229 0 min 0,000 mm 0,0 UV-I 93 W/m 15,8 C 16,4 C 6,4 km/h (2 Bft) 100,00 %
13.07.2016 07:48 16,4 C 96 % 1012,6 hPa 0,0 l/m 7,2 km/h (2 Bft) W-SW 244 0 min 0,000 mm 0,0 UV-I 101 W/m 15,8 C 16,0 C 11,3 km/h (2 Bft) 100,00 %
13.07.2016 07:50 16,4 C 96 % 1012,6 hPa 0,0 l/m 5,9 km/h (2 Bft) W 260 0 min 0,000 mm 0,0 UV-I 117 W/m 15,8 C 16,4 C 9,7 km/h (2 Bft) 98,21 %
13.07.2016 07:52 16,4 C 96 % 1012,6 hPa 0,0 l/m 7,6 km/h (2 Bft) W-SW 254 0 min 0,000 mm 0,0 UV-I 117 W/m 15,8 C 15,8 C 12,9 km/h (3 Bft) 100,00 %
13.07.2016 07:54 16,4 C 95 % 1012,6 hPa 0,0 l/m 9,5 km/h (2 Bft) SW 219 0 min 0,000 mm 0,0 UV-I 99 W/m 15,6 C 14,9 C 16,1 km/h (3 Bft) 100,00 %
13.07.2016 07:56 16,4 C 95 % 1012,6 hPa 0,0 l/m 6,1 km/h (2 Bft) S-SW 213 0 min 0,000 mm 0,0 UV-I 88 W/m 15,6 C 16,4 C 9,7 km/h (2 Bft) 97,87 %
13.07.2016 07:58 16,4 C 95 % 1012,6 hPa 0,0 l/m 6,3 km/h (2 Bft) SW 234 0 min 0,000 mm 0,0 UV-I 83 W/m 15,6 C 16,4 C 9,7 km/h (2 Bft) 100,00 %
13.07.2016 08:00 16,4 C 95 % 1012,6 hPa 0,0 l/m 8,6 km/h (2 Bft) S-SW 202 0 min 0,051 mm 0,0 UV-I 74 W/m 15,6 C 15,3 C 12,9 km/h (3 Bft) 96,23 %
13.07.2016 08:02 16,4 C 95 % 1012,6 hPa 0,0 l/m 5,7 km/h (1 Bft) SW 221 0 min 0,000 mm 0,0 UV-I 68 W/m 15,6 C 16,4 C 8,0 km/h (2 Bft) 100,00 %
13.07.2016 08:04 16,4 C 95 % 1012,6 hPa 0,0 l/m 6,1 km/h (2 Bft) SW 227 0 min 0,000 mm 0,0 UV-I 63 W/m 15,6 C 16,4 C 11,3 km/h (2 Bft) 100,00 %
13.07.2016 08:06 16,4 C 95 % 1012,5 hPa 0,0 l/m 3,0 km/h (1 Bft) SW 225 0 min 0,000 mm 0,0 UV-I 61 W/m 15,6 C 16,4 C 4,8 km/h (1 Bft) 100,00 %
13.07.2016 08:08 16,4 C 95 % 1012,5 hPa 0,0 l/m 5,1 km/h (1 Bft) SW 223 0 min 0,000 mm 0,0 UV-I 61 W/m 15,6 C 16,4 C 8,0 km/h (2 Bft) 97,87 %
13.07.2016 08:10 16,4 C 95 % 1012,5 hPa 0,0 l/m 3,4 km/h (1 Bft) SW 218 0 min 0,000 mm 0,0 UV-I 68 W/m 15,6 C 16,4 C 4,8 km/h (1 Bft) 100,00 %
13.07.2016 08:12 16,4 C 95 % 1012,5 hPa 0,0 l/m 4,1 km/h (1 Bft) SW 223 0 min 0,000 mm 0,0 UV-I 76 W/m 15,6 C 16,4 C 6,4 km/h (2 Bft) 100,00 %
13.07.2016 08:14 16,4 C 95 % 1012,4 hPa 0,0 l/m 4,9 km/h (1 Bft) W-SW 253 0 min 0,000 mm 0,0 UV-I 73 W/m 15,6 C 16,4 C 9,7 km/h (2 Bft) 100,00 %
13.07.2016 08:16 16,4 C 96 % 1012,4 hPa 0,0 l/m 5,0 km/h (1 Bft) W-NW 285 0 min 0,000 mm 0,0 UV-I 66 W/m 15,8 C 16,4 C 6,4 km/h (2 Bft) 100,00 %
13.07.2016 08:18 16,4 C 95 % 1012,4 hPa 0,0 l/m 4,5 km/h (1 Bft) W 267 0 min 0,000 mm 0,0 UV-I 66 W/m 15,6 C 16,4 C 6,4 km/h (2 Bft) 100,00 %
13.07.2016 08:20 16,4 C 95 % 1012,4 hPa 0,0 l/m 2,9 km/h (1 Bft) W 266 0 min 0,000 mm 0,0 UV-I 65 W/m 15,6 C 16,4 C 4,8 km/h (1 Bft) 100,00 %
13.07.2016 08:22 16,4 C 95 % 1012,4 hPa 0,0 l/m 2,5 km/h (1 Bft) W 271 0 min 0,000 mm 0,0 UV-I 63 W/m 15,6 C 16,4 C 4,8 km/h (1 Bft) 100,00 %
13.07.2016 08:24 16,4 C 95 % 1012,4 hPa 0,0 l/m 3,3 km/h (1 Bft) W 264 0 min 0,000 mm 0,0 UV-I 66 W/m 15,6 C 16,4 C 4,8 km/h (1 Bft) 100,00 %
13.07.2016 08:26 16,4 C 95 % 1012,4 hPa 0,0 l/m 3,4 km/h (1 Bft) W 264 0 min 0,000 mm 0,0 UV-I 79 W/m 15,6 C 16,4 C 4,8 km/h (1 Bft) 98,00 %
13.07.2016 08:28 16,4 C 95 % 1012,4 hPa 0,0 l/m 3,6 km/h (1 Bft) W 277 0 min 0,000 mm 0,0 UV-I 90 W/m 15,6 C 16,4 C 6,4 km/h (2 Bft) 100,00 %
13.07.2016 08:30 16,5 C 96 % 1012,5 hPa 0,0 l/m 3,9 km/h (1 Bft) W 265 0 min 0,000 mm 0,0 UV-I 90 W/m 15,9 C 16,5 C 6,4 km/h (2 Bft) 100,00 %
13.07.2016 08:32 16,5 C 95 % 1012,5 hPa 0,0 l/m 4,2 km/h (1 Bft) W 266 0 min 0,000 mm 0,4 UV-I 94 W/m 15,7 C 16,5 C 6,4 km/h (2 Bft) 98,00 %
13.07.2016 08:34 16,5 C 95 % 1012,5 hPa 0,0 l/m 3,7 km/h (1 Bft) W 265 0 min 0,000 mm 0,5 UV-I 107 W/m 15,7 C 16,5 C 4,8 km/h (1 Bft) 100,00 %
13.07.2016 08:36 16,5 C 95 % 1012,5 hPa 0,0 l/m 3,6 km/h (1 Bft) W 265 0 min 0,000 mm 0,6 UV-I 118 W/m 15,7 C 16,5 C 4,8 km/h (1 Bft) 100,00 %
13.07.2016 08:38 16,6 C 95 % 1012,5 hPa 0,0 l/m 2,0 km/h (1 Bft) W 265 0 min 0,000 mm 0,7 UV-I 144 W/m 15,8 C 16,6 C 3,2 km/h (1 Bft) 100,00 %
13.07.2016 08:40 16,7 C 96 % 1012,5 hPa 0,0 l/m 2,7 km/h (1 Bft) W 272 0 min 0,000 mm 0,7 UV-I 160 W/m 16,1 C 16,7 C 4,8 km/h (1 Bft) 100,00 %
13.07.2016 08:42 16,8 C 96 % 1012,5 hPa 0,0 l/m 2,8 km/h (1 Bft) W 272 0 min 0,000 mm 0,7 UV-I 153 W/m 16,2 C 16,8 C 4,8 km/h (1 Bft) 97,62 %
13.07.2016 08:44 16,7 C 95 % 1012,5 hPa 0,0 l/m 4,7 km/h (1 Bft) W-SW 249 0 min 0,000 mm 0,7 UV-I 148 W/m 15,9 C 16,7 C 6,4 km/h (2 Bft) 100,00 %
13.07.2016 08:46 16,8 C 95 % 1012,5 hPa 0,0 l/m 2,7 km/h (1 Bft) SW 232 0 min 0,000 mm 0,7 UV-I 150 W/m 16,0 C 16,8 C 4,8 km/h (1 Bft) 98,11 %
13.07.2016 08:48 16,8 C 95 % 1012,5 hPa 0,0 l/m 4,8 km/h (1 Bft) SW 234 0 min 0,000 mm 0,8 UV-I 159 W/m 16,0 C 16,8 C 8,0 km/h (2 Bft) 100,00 %
13.07.2016 08:50 16,8 C 95 % 1012,5 hPa 0,0 l/m 4,3 km/h (1 Bft) W 268 0 min 0,000 mm 0,8 UV-I 162 W/m 16,0 C 16,8 C 6,4 km/h (2 Bft) 100,00 %
13.07.2016 08:52 16,8 C 94 % 1012,4 hPa 0,0 l/m 4,2 km/h (1 Bft) W-SW 250 0 min 0,000 mm 0,9 UV-I 175 W/m 15,8 C 16,8 C 6,4 km/h (2 Bft) 100,00 %
13.07.2016 08:54 16,8 C 95 % 1012,4 hPa 0,0 l/m 5,0 km/h (1 Bft) W 278 0 min 0,000 mm 1,0 UV-I 204 W/m 16,0 C 16,8 C 8,0 km/h (2 Bft) 100,00 %
13.07.2016 08:56 16,8 C 94 % 1012,3 hPa 0,0 l/m 4,0 km/h (1 Bft) W-NW 294 0 min 0,000 mm 1,1 UV-I 222 W/m 15,8 C 16,8 C 8,0 km/h (2 Bft) 100,00 %
13.07.2016 08:58 16,9 C 94 % 1012,3 hPa 0,0 l/m 5,2 km/h (1 Bft) W-SW 248 0 min 0,000 mm 1,1 UV-I 237 W/m 15,9 C 16,9 C 9,7 km/h (2 Bft) 98,11 %
13.07.2016 09:00 17,0 C 94 % 1012,2 hPa 0,0 l/m 4,8 km/h (1 Bft) SW 236 0 min 0,076 mm 1,2 UV-I 236 W/m 16,0 C 17,0 C 8,0 km/h (2 Bft) 97,56 %
13.07.2016 09:02 17,0 C 94 % 1012,3 hPa 0,0 l/m 6,7 km/h (2 Bft) W 269 0 min 0,000 mm 1,2 UV-I 232 W/m 16,0 C 16,9 C 11,3 km/h (2 Bft) 97,73 %
13.07.2016 09:04 17,1 C 94 % 1012,3 hPa 0,0 l/m 6,9 km/h (2 Bft) W-SW 257 0 min 0,000 mm 1,3 UV-I 252 W/m 16,1 C 16,9 C 11,3 km/h (2 Bft) 96,30 %
13.07.2016 09:06 17,1 C 94 % 1012,3 hPa 0,0 l/m 6,0 km/h (2 Bft) W 279 0 min 0,000 mm 1,3 UV-I 268 W/m 16,1 C 17,1 C 11,3 km/h (2 Bft) 98,00 %
13.07.2016 09:08 17,2 C 93 % 1012,3 hPa 0,0 l/m 7,2 km/h (2 Bft) W-SW 250 0 min 0,000 mm 1,5 UV-I 313 W/m 16,1 C 16,8 C 14,5 km/h (3 Bft) 97,87 %
13.07.2016 09:10 17,3 C 93 % 1012,3 hPa 0,0 l/m 7,0 km/h (2 Bft) SW 222 2 min 0,000 mm 1,7 UV-I 361 W/m 16,2 C 17,0 C 12,9 km/h (3 Bft) 97,87 %
13.07.2016 09:12 17,3 C 92 % 1012,3 hPa 0,0 l/m 7,5 km/h (2 Bft) W-SW 250 2 min 0,000 mm 1,7 UV-I 351 W/m 16,0 C 16,8 C 12,9 km/h (3 Bft) 97,37 %
13.07.2016 09:14 17,4 C 92 % 1012,3 hPa 0,0 l/m 8,9 km/h (2 Bft) SW 229 2 min 0,000 mm 1,7 UV-I 356 W/m 16,1 C 16,2 C 12,9 km/h (3 Bft) 98,00 %
13.07.2016 09:16 17,3 C 91 % 1012,3 hPa 0,0 l/m 9,1 km/h (2 Bft) SW 236 2 min 0,000 mm 1,7 UV-I 352 W/m 15,8 C 16,0 C 14,5 km/h (3 Bft) 93,18 %
13.07.2016 09:18 17,3 C 90 % 1012,3 hPa 0,0 l/m 10,9 km/h (2 Bft) W-SW 250 2 min 0,000 mm 1,7 UV-I 349 W/m 15,6 C 15,3 C 14,5 km/h (3 Bft) 98,11 %
13.07.2016 09:20 17,4 C 92 % 1012,3 hPa 0,0 l/m 7,0 km/h (2 Bft) W-SW 250 2 min 0,000 mm 1,9 UV-I 406 W/m 16,1 C 17,1 C 12,9 km/h (3 Bft) 94,87 %
13.07.2016 09:22 17,4 C 91 % 1012,3 hPa 0,0 l/m 6,4 km/h (2 Bft) SW 223 2 min 0,000 mm 1,8 UV-I 354 W/m 15,9 C 17,4 C 9,7 km/h (2 Bft) 97,87 %
13.07.2016 09:24 17,4 C 91 % 1012,3 hPa 0,0 l/m 7,9 km/h (2 Bft) W-SW 250 2 min 0,000 mm 1,8 UV-I 340 W/m 15,9 C 16,7 C 11,3 km/h (2 Bft) 96,00 %
13.07.2016 09:26 17,6 C 92 % 1012,4 hPa 0,0 l/m 5,9 km/h (2 Bft) SW 225 0 min 0,000 mm 1,7 UV-I 321 W/m 16,3 C 17,6 C 9,7 km/h (2 Bft) 96,23 %
13.07.2016 09:28 17,6 C 91 % 1012,4 hPa 0,0 l/m 9,2 km/h (2 Bft) SW 226 2 min 0,000 mm 1,7 UV-I 353 W/m 16,1 C 16,3 C 12,9 km/h (3 Bft) 97,73 %
13.07.2016 09:30 17,7 C 91 % 1012,4 hPa 0,0 l/m 7,1 km/h (2 Bft) SW 216 0 min 0,000 mm 1,7 UV-I 312 W/m 16,2 C 17,4 C 11,3 km/h (2 Bft) 96,15 %
13.07.2016 09:32 17,7 C 90 % 1012,4 hPa 0,0 l/m 7,2 km/h (2 Bft) W 263 0 min 0,000 mm 1,7 UV-I 301 W/m 16,0 C 17,3 C 11,3 km/h (2 Bft) 96,92 %
13.07.2016 09:34 17,7 C 91 % 1012,4 hPa 0,0 l/m 3,8 km/h (1 Bft) W-SW 256 0 min 0,000 mm 1,9 UV-I 328 W/m 16,2 C 17,7 C 6,4 km/h (2 Bft) 98,11 %
13.07.2016 09:36 17,7 C 90 % 1012,4 hPa 0,0 l/m 6,8 km/h (2 Bft) SW 225 0 min 0,000 mm 1,7 UV-I 307 W/m 16,0 C 17,5 C 9,7 km/h (2 Bft) 97,87 %
13.07.2016 09:38 17,7 C 90 % 1012,4 hPa 0,0 l/m 6,8 km/h (2 Bft) W 264 0 min 0,000 mm 1,7 UV-I 259 W/m 16,0 C 17,5 C 11,3 km/h (2 Bft) 100,00 %
13.07.2016 09:40 17,7 C 90 % 1012,3 hPa 0,0 l/m 5,5 km/h (1 Bft) W-SW 254 0 min 0,000 mm 1,8 UV-I 277 W/m 16,0 C 17,7 C 8,0 km/h (2 Bft) 100,00 %
13.07.2016 09:42 17,6 C 91 % 1012,4 hPa 0,0 l/m 6,6 km/h (2 Bft) W-SW 247 0 min 0,000 mm 1,9 UV-I 298 W/m 16,1 C 17,5 C 11,3 km/h (2 Bft) 98,11 %
13.07.2016 09:44 17,7 C 91 % 1012,3 hPa 0,0 l/m 5,3 km/h (1 Bft) W-SW 246 0 min 0,000 mm 1,8 UV-I 299 W/m 16,2 C 17,7 C 11,3 km/h (2 Bft) 100,00 %
13.07.2016 09:46 17,7 C 90 % 1012,3 hPa 0,0 l/m 8,6 km/h (2 Bft) W 261 0 min 0,000 mm 1,6 UV-I 271 W/m 16,0 C 16,7 C 12,9 km/h (3 Bft) 100,00 %
13.07.2016 09:48 17,7 C 90 % 1012,3 hPa 0,0 l/m 5,4 km/h (1 Bft) W-NW 286 0 min 0,000 mm 1,7 UV-I 288 W/m 16,0 C 17,7 C 9,7 km/h (2 Bft) 100,00 %
13.07.2016 09:50 17,8 C 91 % 1012,3 hPa 0,0 l/m 5,8 km/h (2 Bft) W-SW 247 0 min 0,000 mm 1,8 UV-I 298 W/m 16,3 C 17,8 C 11,3 km/h (2 Bft) 100,00 %
13.07.2016 09:52 17,8 C 90 % 1012,3 hPa 0,0 l/m 8,6 km/h (2 Bft) W-SW 248 0 min 0,000 mm 1,8 UV-I 292 W/m 16,1 C 16,8 C 14,5 km/h (3 Bft) 100,00 %
13.07.2016 09:54 17,8 C 89 % 1012,3 hPa 0,0 l/m 8,7 km/h (2 Bft) W-SW 238 0 min 0,000 mm 2,0 UV-I 306 W/m 16,0 C 16,7 C 12,9 km/h (3 Bft) 100,00 %
13.07.2016 09:56 17,8 C 90 % 1012,3 hPa 0,0 l/m 7,1 km/h (2 Bft) W-SW 244 0 min 0,000 mm 2,0 UV-I 308 W/m 16,1 C 17,5 C 9,7 km/h (2 Bft) 100,00 %
13.07.2016 09:58 17,8 C 90 % 1012,3 hPa 0,0 l/m 8,4 km/h (2 Bft) SW 228 0 min 0,000 mm 2,0 UV-I 309 W/m 16,1 C 16,9 C 12,9 km/h (3 Bft) 100,00 %
13.07.2016 10:00 17,8 C 90 % 1012,2 hPa 0,0 l/m 7,3 km/h (2 Bft) SW 236 0 min 0,178 mm 2,0 UV-I 315 W/m 16,1 C 17,4 C 11,3 km/h (2 Bft) 100,00 %
13.07.2016 10:02 17,8 C 89 % 1012,3 hPa 0,0 l/m 9,6 km/h (2 Bft) W-SW 250 0 min 0,000 mm 2,0 UV-I 325 W/m 16,0 C 16,4 C 17,7 km/h (3 Bft) 100,00 %
13.07.2016 10:04 17,8 C 88 % 1012,2 hPa 0,0 l/m 10,3 km/h (2 Bft) SW 219 0 min 0,000 mm 2,1 UV-I 338 W/m 15,8 C 16,1 C 14,5 km/h (3 Bft) 100,00 %
13.07.2016 10:06 17,8 C 88 % 1012,2 hPa 0,0 l/m 8,6 km/h (2 Bft) W-SW 243 0 min 0,000 mm 2,2 UV-I 366 W/m 15,8 C 16,8 C 14,5 km/h (3 Bft) 100,00 %
13.07.2016 10:08 17,9 C 89 % 1012,2 hPa 0,0 l/m 5,5 km/h (1 Bft) W 264 0 min 0,000 mm 2,2 UV-I 379 W/m 16,1 C 17,9 C 11,3 km/h (2 Bft) 97,87 %
13.07.2016 10:10 18,1 C 90 % 1012,2 hPa 0,0 l/m 7,0 km/h (2 Bft) W 266 0 min 0,000 mm 2,0 UV-I 338 W/m 16,4 C 17,8 C 11,3 km/h (2 Bft) 100,00 %
13.07.2016 10:12 18,1 C 89 % 1012,2 hPa 0,0 l/m 5,0 km/h (1 Bft) W-SW 248 0 min 0,000 mm 2,1 UV-I 343 W/m 16,3 C 18,1 C 8,0 km/h (2 Bft) 100,00 %
13.07.2016 10:14 18,2 C 91 % 1012,3 hPa 0,0 l/m 3,7 km/h (1 Bft) W-SW 247 0 min 0,000 mm 2,4 UV-I 382 W/m 16,7 C 18,2 C 6,4 km/h (2 Bft) 100,00 %
13.07.2016 10:16 18,3 C 91 % 1012,3 hPa 0,0 l/m 7,1 km/h (2 Bft) W 273 0 min 0,000 mm 2,2 UV-I 362 W/m 16,8 C 18,0 C 12,9 km/h (3 Bft) 100,00 %
13.07.2016 10:18 18,3 C 87 % 1012,3 hPa 0,0 l/m 6,2 km/h (2 Bft) W-NW 294 0 min 0,000 mm 1,9 UV-I 308 W/m 16,1 C 18,3 C 16,1 km/h (3 Bft) 98,00 %
13.07.2016 10:20 18,2 C 88 % 1012,3 hPa 0,0 l/m 7,9 km/h (2 Bft) W-SW 248 0 min 0,000 mm 1,8 UV-I 281 W/m 16,2 C 17,5 C 14,5 km/h (3 Bft) 100,00 %
13.07.2016 10:22 18,1 C 88 % 1012,3 hPa 0,0 l/m 7,8 km/h (2 Bft) W-SW 246 0 min 0,000 mm 1,8 UV-I 286 W/m 16,1 C 17,4 C 14,5 km/h (3 Bft) 100,00 %
13.07.2016 10:24 18,1 C 88 % 1012,3 hPa 0,0 l/m 6,1 km/h (2 Bft) W-SW 239 0 min 0,000 mm 1,8 UV-I 279 W/m 16,1 C 18,1 C 11,3 km/h (2 Bft) 97,87 %
13.07.2016 10:26 18,0 C 87 % 1012,3 hPa 0,0 l/m 4,7 km/h (1 Bft) W 261 0 min 0,000 mm 1,8 UV-I 281 W/m 15,8 C 18,0 C 9,7 km/h (2 Bft) 100,00 %
13.07.2016 10:28 18,0 C 88 % 1012,3 hPa 0,0 l/m 2,5 km/h (1 Bft) W 263 0 min 0,000 mm 1,9 UV-I 290 W/m 16,0 C 18,0 C 4,8 km/h (1 Bft) 100,00 %
13.07.2016 10:30 17,9 C 88 % 1012,3 hPa 0,0 l/m 5,8 km/h (2 Bft) W-SW 252 0 min 0,000 mm 2,0 UV-I 307 W/m 15,9 C 17,9 C 12,9 km/h (3 Bft) 100,00 %
13.07.2016 10:32 17,9 C 85 % 1012,3 hPa 0,0 l/m 10,6 km/h (2 Bft) SW 234 0 min 0,000 mm 2,2 UV-I 331 W/m 15,3 C 16,1 C 16,1 km/h (3 Bft) 100,00 %
13.07.2016 10:34 18,0 C 86 % 1012,3 hPa 0,0 l/m 4,9 km/h (1 Bft) W 281 0 min 0,000 mm 2,4 UV-I 366 W/m 15,6 C 18,0 C 9,7 km/h (2 Bft) 100,00 %
13.07.2016 10:36 18,1 C 88 % 1012,2 hPa 0,0 l/m 3,5 km/h (1 Bft) W 274 0 min 0,000 mm 2,7 UV-I 404 W/m 16,1 C 18,1 C 4,8 km/h (1 Bft) 100,00 %
13.07.2016 10:38 18,2 C 88 % 1012,2 hPa 0,0 l/m 5,4 km/h (1 Bft) W-NW 303 2 min 0,000 mm 2,9 UV-I 433 W/m 16,2 C 18,2 C 11,3 km/h (2 Bft) 100,00 %
13.07.2016 10:40 18,2 C 87 % 1012,2 hPa 0,0 l/m 3,9 km/h (1 Bft) SW 227 2 min 0,000 mm 3,0 UV-I 427 W/m 16,0 C 18,2 C 8,0 km/h (2 Bft) 100,00 %
13.07.2016 10:42 18,3 C 87 % 1012,2 hPa 0,0 l/m 3,4 km/h (1 Bft) W-NW 286 0 min 0,000 mm 3,0 UV-I 415 W/m 16,1 C 18,3 C 6,4 km/h (2 Bft) 100,00 %
13.07.2016 10:44 18,4 C 88 % 1012,2 hPa 0,0 l/m 3,7 km/h (1 Bft) W 265 2 min 0,000 mm 3,3 UV-I 461 W/m 16,4 C 18,4 C 9,7 km/h (2 Bft) 100,00 %
13.07.2016 10:46 18,4 C 86 % 1012,2 hPa 0,0 l/m 5,4 km/h (1 Bft) W 266 2 min 0,000 mm 3,6 UV-I 503 W/m 16,0 C 18,4 C 11,3 km/h (2 Bft) 100,00 %
13.07.2016 10:48 18,6 C 86 % 1012,2 hPa 0,0 l/m 3,3 km/h (1 Bft) W 268 2 min 0,000 mm 3,8 UV-I 518 W/m 16,2 C 18,6 C 6,4 km/h (2 Bft) 98,00 %
13.07.2016 10:50 18,8 C 87 % 1012,2 hPa 0,0 l/m 2,8 km/h (1 Bft) W-SW 256 2 min 0,000 mm 5,0 UV-I 865 W/m 16,6 C 18,8 C 6,4 km/h (2 Bft) 100,00 %
13.07.2016 10:52 18,9 C 83 % 1012,1 hPa 0,0 l/m 7,7 km/h (2 Bft) W 272 2 min 0,000 mm 3,2 UV-I 776 W/m 15,9 C 18,3 C 12,9 km/h (3 Bft) 100,00 %
13.07.2016 10:54 18,7 C 81 % 1012,1 hPa 0,0 l/m 6,4 km/h (2 Bft) SW 236 0 min 0,000 mm 2,9 UV-I 333 W/m 15,4 C 18,7 C 12,9 km/h (3 Bft) 100,00 %
13.07.2016 10:56 18,6 C 85 % 1012,1 hPa 0,0 l/m 4,4 km/h (1 Bft) W-NW 299 0 min 0,000 mm 3,0 UV-I 331 W/m 16,0 C 18,6 C 9,7 km/h (2 Bft) 97,87 %
13.07.2016 10:58 18,6 C 83 % 1012,1 hPa 0,0 l/m 4,1 km/h (1 Bft) W-NW 289 0 min 0,000 mm 3,2 UV-I 352 W/m 15,7 C 18,6 C 6,4 km/h (2 Bft) 97,37 %
13.07.2016 11:00 18,6 C 85 % 1012,1 hPa 0,0 l/m 4,5 km/h (1 Bft) W 259 0 min 0,229 mm 3,4 UV-I 415 W/m 16,0 C 18,6 C 11,3 km/h (2 Bft) 96,43 %
13.07.2016 11:02 18,6 C 83 % 1012,1 hPa 0,0 l/m 6,3 km/h (2 Bft) NW 309 2 min 0,000 mm 3,6 UV-I 456 W/m 15,7 C 18,6 C 11,3 km/h (2 Bft) 98,00 %
13.07.2016 11:04 18,6 C 85 % 1012,0 hPa 0,0 l/m 5,4 km/h (1 Bft) W 265 0 min 0,000 mm 3,5 UV-I 421 W/m 16,0 C 18,6 C 11,3 km/h (2 Bft) 94,74 %
13.07.2016 11:06 18,7 C 85 % 1012,0 hPa 0,0 l/m 3,2 km/h (1 Bft) W 263 2 min 0,000 mm 3,5 UV-I 442 W/m 16,1 C 18,7 C 4,8 km/h (1 Bft) 96,00 %
13.07.2016 11:08 18,7 C 83 % 1012,0 hPa 0,0 l/m 4,5 km/h (1 Bft) W-SW 255 0 min 0,000 mm 3,3 UV-I 423 W/m 15,8 C 18,7 C 9,7 km/h (2 Bft) 98,00 %
13.07.2016 11:10 18,7 C 83 % 1012,1 hPa 0,0 l/m 5,8 km/h (2 Bft) W-NW 296 0 min 0,000 mm 2,8 UV-I 365 W/m 15,8 C 18,7 C 11,3 km/h (2 Bft) 97,37 %
13.07.2016 11:12 18,7 C 83 % 1012,0 hPa 0,0 l/m 5,1 km/h (1 Bft) W-NW 292 0 min 0,000 mm 2,6 UV-I 336 W/m 15,8 C 18,7 C 9,7 km/h (2 Bft) 96,43 %
13.07.2016 11:14 18,7 C 83 % 1012,0 hPa 0,0 l/m 3,4 km/h (1 Bft) W 274 0 min 0,000 mm 2,5 UV-I 335 W/m 15,8 C 18,7 C 6,4 km/h (2 Bft) 97,37 %
13.07.2016 11:16 18,7 C 83 % 1012,0 hPa 0,0 l/m 2,4 km/h (1 Bft) S-SW 194 0 min 0,000 mm 2,8 UV-I 359 W/m 15,8 C 18,7 C 6,4 km/h (2 Bft) 96,00 %
13.07.2016 11:18 18,7 C 82 % 1011,9 hPa 0,0 l/m 4,9 km/h (1 Bft) S 186 0 min 0,000 mm 2,9 UV-I 368 W/m 15,6 C 18,7 C 8,0 km/h (2 Bft) 98,11 %
13.07.2016 11:20 18,7 C 83 % 1012,0 hPa 0,0 l/m 4,3 km/h (1 Bft) W 277 0 min 0,000 mm 2,8 UV-I 358 W/m 15,8 C 18,7 C 8,0 km/h (2 Bft) 97,87 %
13.07.2016 11:22 18,8 C 84 % 1012,1 hPa 0,0 l/m 6,1 km/h (2 Bft) W-SW 254 0 min 0,000 mm 2,7 UV-I 356 W/m 16,0 C 18,8 C 11,3 km/h (2 Bft) 93,75 %
13.07.2016 11:24 18,9 C 83 % 1012,1 hPa 0,0 l/m 7,9 km/h (2 Bft) W-SW 250 0 min 0,000 mm 2,8 UV-I 370 W/m 15,9 C 18,2 C 12,9 km/h (3 Bft) 100,00 %
13.07.2016 11:26 19,0 C 82 % 1012,0 hPa 0,0 l/m 7,6 km/h (2 Bft) SW 234 0 min 0,000 mm 3,2 UV-I 411 W/m 15,9 C 18,5 C 14,5 km/h (3 Bft) 96,43 %
13.07.2016 11:28 19,0 C 81 % 1012,0 hPa 0,0 l/m 6,6 km/h (2 Bft) SW 225 0 min 0,000 mm 3,4 UV-I 436 W/m 15,7 C 18,9 C 11,3 km/h (2 Bft) 94,74 %
13.07.2016 11:30 19,1 C 81 % 1012,0 hPa 0,0 l/m 5,8 km/h (2 Bft) W-SW 239 0 min 0,000 mm 3,5 UV-I 441 W/m 15,8 C 19,1 C 8,0 km/h (2 Bft) 98,21 %
13.07.2016 11:32 19,0 C 82 % 1012,0 hPa 0,0 l/m 4,0 km/h (1 Bft) SW 227 0 min 0,000 mm 3,4 UV-I 424 W/m 15,9 C 19,0 C 6,4 km/h (2 Bft) 100,00 %
13.07.2016 11:34 19,1 C 82 % 1012,0 hPa 0,0 l/m 7,3 km/h (2 Bft) SW 217 0 min 0,000 mm 3,3 UV-I 419 W/m 16,0 C 18,7 C 12,9 km/h (3 Bft) 95,74 %
13.07.2016 11:36 19,2 C 83 % 1011,9 hPa 0,0 l/m 7,1 km/h (2 Bft) SW 222 0 min 0,000 mm 3,4 UV-I 440 W/m 16,2 C 18,9 C 12,9 km/h (3 Bft) 100,00 %
13.07.2016 11:38 19,2 C 82 % 1011,9 hPa 0,0 l/m 8,3 km/h (2 Bft) W 279 0 min 0,000 mm 3,5 UV-I 430 W/m 16,0 C 18,4 C 14,5 km/h (3 Bft) 100,00 %
13.07.2016 11:40 19,1 C 82 % 1011,9 hPa 0,0 l/m 3,6 km/h (1 Bft) W-SW 257 0 min 0,000 mm 3,1 UV-I 389 W/m 16,0 C 19,1 C 9,7 km/h (2 Bft) 98,00 %
13.07.2016 11:42 19,0 C 82 % 1011,9 hPa 0,0 l/m 5,2 km/h (1 Bft) W-SW 244 0 min 0,000 mm 3,0 UV-I 371 W/m 15,9 C 19,0 C 8,0 km/h (2 Bft) 98,00 %
13.07.2016 11:44 19,0 C 81 % 1011,9 hPa 0,0 l/m 5,8 km/h (2 Bft) W-SW 256 0 min 0,000 mm 2,7 UV-I 329 W/m 15,7 C 19,0 C 9,7 km/h (2 Bft) 100,00 %
13.07.2016 11:46 18,9 C 82 % 1012,0 hPa 0,0 l/m 3,7 km/h (1 Bft) W-SW 257 0 min 0,000 mm 2,5 UV-I 309 W/m 15,8 C 18,9 C 6,4 km/h (2 Bft) 100,00 %
13.07.2016 11:48 18,9 C 81 % 1011,9 hPa 0,0 l/m 1,4 km/h (1 Bft) W-SW 257 0 min 0,000 mm 2,5 UV-I 312 W/m 15,6 C 18,9 C 3,2 km/h (1 Bft) 97,87 %
13.07.2016 11:50 19,0 C 81 % 1011,9 hPa 0,0 l/m 5,3 km/h (1 Bft) W-SW 240 0 min 0,000 mm 2,4 UV-I 303 W/m 15,7 C 19,0 C 8,0 km/h (2 Bft) 100,00 %
13.07.2016 11:52 19,0 C 82 % 1011,9 hPa 0,0 l/m 4,3 km/h (1 Bft) SW 234 0 min 0,000 mm 2,2 UV-I 280 W/m 15,9 C 19,0 C 8,0 km/h (2 Bft) 100,00 %
13.07.2016 11:54 19,1 C 81 % 1012,0 hPa 0,0 l/m 2,4 km/h (1 Bft) W-SW 254 0 min 0,000 mm 2,2 UV-I 277 W/m 15,8 C 19,1 C 4,8 km/h (1 Bft) 100,00 %
13.07.2016 11:56 19,1 C 82 % 1011,9 hPa 0,0 l/m 4,3 km/h (1 Bft) S-SW 205 0 min 0,000 mm 2,2 UV-I 282 W/m 16,0 C 19,1 C 8,0 km/h (2 Bft) 100,00 %
13.07.2016 11:58 19,1 C 82 % 1012,0 hPa 0,0 l/m 4,7 km/h (1 Bft) W-NW 284 0 min 0,000 mm 2,2 UV-I 278 W/m 16,0 C 19,1 C 6,4 km/h (2 Bft) 98,00 %
13.07.2016 12:00 19,1 C 81 % 1012,0 hPa 0,0 l/m 4,3 km/h (1 Bft) W-NW 292 0 min 0,228 mm 2,3 UV-I 284 W/m 15,8 C 19,1 C 9,7 km/h (2 Bft) 100,00 %
13.07.2016 12:02 19,1 C 80 % 1012,0 hPa 0,0 l/m 5,8 km/h (2 Bft) W 267 0 min 0,000 mm 2,6 UV-I 319 W/m 15,6 C 19,1 C 12,9 km/h (3 Bft) 97,87 %
13.07.2016 12:04 19,1 C 81 % 1011,9 hPa 0,0 l/m 1,9 km/h (1 Bft) W-NW 292 0 min 0,000 mm 3,1 UV-I 385 W/m 15,8 C 19,1 C 4,8 km/h (1 Bft) 100,00 %
13.07.2016 12:06 19,2 C 81 % 1011,8 hPa 0,0 l/m 3,5 km/h (1 Bft) W-SW 252 0 min 0,000 mm 3,5 UV-I 431 W/m 15,9 C 19,2 C 6,4 km/h (2 Bft) 100,00 %
13.07.2016 12:08 19,3 C 79 % 1011,8 hPa 0,0 l/m 5,2 km/h (1 Bft) W-NW 296 0 min 0,000 mm 3,7 UV-I 457 W/m 15,6 C 19,3 C 9,7 km/h (2 Bft) 100,00 %
13.07.2016 12:10 19,3 C 77 % 1011,8 hPa 0,0 l/m 6,7 km/h (2 Bft) W-SW 252 2 min 0,000 mm 3,9 UV-I 491 W/m 15,2 C 19,2 C 9,7 km/h (2 Bft) 100,00 %
13.07.2016 12:12 19,4 C 79 % 1011,8 hPa 0,0 l/m 5,9 km/h (2 Bft) W-SW 250 2 min 0,000 mm 4,6 UV-I 604 W/m 15,7 C 19,4 C 11,3 km/h (2 Bft) 100,00 %
13.07.2016 12:14 19,7 C 79 % 1011,6 hPa 0,0 l/m 6,2 km/h (2 Bft) W-NW 297 2 min 0,000 mm 5,2 UV-I 646 W/m 16,0 C 19,7 C 11,3 km/h (2 Bft) 100,00 %
13.07.2016 12:16 19,8 C 79 % 1011,6 hPa 0,0 l/m 3,4 km/h (1 Bft) W-SW 246 2 min 0,000 mm 5,0 UV-I 651 W/m 16,0 C 19,8 C 4,8 km/h (1 Bft) 97,14 %
13.07.2016 12:18 19,8 C 77 % 1011,6 hPa 0,0 l/m 3,1 km/h (1 Bft) N 9 2 min 0,000 mm 4,1 UV-I 520 W/m 15,6 C 19,8 C 8,0 km/h (2 Bft) 98,00 %
13.07.2016 12:20 19,8 C 79 % 1011,5 hPa 0,0 l/m 2,7 km/h (1 Bft) W 272 2 min 0,000 mm 3,9 UV-I 490 W/m 16,0 C 19,8 C 6,4 km/h (2 Bft) 100,00 %
13.07.2016 12:22 19,7 C 77 % 1011,4 hPa 0,0 l/m 2,5 km/h (1 Bft) NW 321 0 min 0,000 mm 3,8 UV-I 442 W/m 15,5 C 19,7 C 4,8 km/h (1 Bft) 100,00 %
13.07.2016 12:24 19,7 C 79 % 1011,4 hPa 0,0 l/m 1,6 km/h (1 Bft) N-NW 337 0 min 0,000 mm 4,0 UV-I 474 W/m 16,0 C 19,7 C 4,8 km/h (1 Bft) 97,56 %
13.07.2016 12:26 19,8 C 80 % 1011,3 hPa 0,0 l/m 2,3 km/h (1 Bft) N 360 2 min 0,000 mm 4,5 UV-I 563 W/m 16,2 C 19,8 C 4,8 km/h (1 Bft) 98,00 %
13.07.2016 12:28 19,9 C 81 % 1011,4 hPa 0,0 l/m 3,5 km/h (1 Bft) N-NW 336 0 min 0,000 mm 4,0 UV-I 461 W/m 16,5 C 19,9 C 11,3 km/h (2 Bft) 98,11 %
13.07.2016 12:30 19,7 C 78 % 1011,4 hPa 0,0 l/m 5,2 km/h (1 Bft) N-NW 338 0 min 0,000 mm 3,7 UV-I 418 W/m 15,8 C 19,7 C 11,3 km/h (2 Bft) 100,00 %
13.07.2016 12:32 19,7 C 81 % 1011,4 hPa 0,0 l/m 2,3 km/h (1 Bft) N 5 0 min 0,000 mm 3,8 UV-I 433 W/m 16,3 C 19,7 C 6,4 km/h (2 Bft) 100,00 %
13.07.2016 12:34 19,8 C 82 % 1011,4 hPa 0,0 l/m 2,9 km/h (1 Bft) N-NW 329 0 min 0,000 mm 3,8 UV-I 441 W/m 16,6 C 19,8 C 4,8 km/h (1 Bft) 100,00 %
13.07.2016 12:36 19,8 C 81 % 1011,4 hPa 0,0 l/m 3,4 km/h (1 Bft) NW 319 0 min 0,000 mm 3,9 UV-I 440 W/m 16,4 C 19,8 C 8,0 km/h (2 Bft) 100,00 %
13.07.2016 12:38 19,7 C 79 % 1011,4 hPa 0,0 l/m 2,3 km/h (1 Bft) W 273 0 min 0,000 mm 4,0 UV-I 439 W/m 16,0 C 19,7 C 4,8 km/h (1 Bft) 97,78 %
13.07.2016 12:40 19,6 C 78 % 1011,3 hPa 0,0 l/m 2,2 km/h (1 Bft) NW 315 0 min 0,000 mm 4,0 UV-I 402 W/m 15,7 C 19,6 C 3,2 km/h (1 Bft) 97,56 %
13.07.2016 12:42 19,5 C 79 % 1011,3 hPa 0,0 l/m 1,4 km/h (1 Bft) NW 319 0 min 0,000 mm 3,7 UV-I 379 W/m 15,8 C 19,5 C 4,8 km/h (1 Bft) 100,00 %
13.07.2016 12:44 19,6 C 80 % 1011,3 hPa 0,0 l/m 2,2 km/h (1 Bft) NW 306 0 min 0,000 mm 3,5 UV-I 367 W/m 16,1 C 19,6 C 4,8 km/h (1 Bft) 100,00 %
13.07.2016 12:46 19,6 C 79 % 1011,2 hPa 0,0 l/m 2,2 km/h (1 Bft) NW 310 0 min 0,000 mm 3,4 UV-I 367 W/m 15,9 C 19,6 C 4,8 km/h (1 Bft) 97,87 %
13.07.2016 12:48 19,6 C 80 % 1011,2 hPa 0,0 l/m 2,9 km/h (1 Bft) W 269 0 min 0,000 mm 3,2 UV-I 369 W/m 16,1 C 19,6 C 9,7 km/h (2 Bft) 100,00 %
13.07.2016 12:50 19,6 C 79 % 1011,2 hPa 0,0 l/m 1,8 km/h (1 Bft) NW 305 0 min 0,000 mm 3,2 UV-I 360 W/m 15,9 C 19,6 C 6,4 km/h (2 Bft) 100,00 %
13.07.2016 12:52 19,7 C 79 % 1011,3 hPa 0,0 l/m 1,5 km/h (1 Bft) N-NW 340 0 min 0,000 mm 2,8 UV-I 318 W/m 16,0 C 19,7 C 3,2 km/h (1 Bft) 97,37 %
13.07.2016 12:54 19,6 C 78 % 1011,3 hPa 0,0 l/m 3,5 km/h (1 Bft) N 360 0 min 0,000 mm 2,3 UV-I 267 W/m 15,7 C 19,6 C 6,4 km/h (2 Bft) 100,00 %
13.07.2016 12:56 19,4 C 80 % 1011,4 hPa 0,0 l/m 3,0 km/h (1 Bft) N-NW 340 0 min 0,000 mm 2,1 UV-I 243 W/m 15,9 C 19,4 C 6,4 km/h (2 Bft) 97,73 %
13.07.2016 12:58 19,4 C 80 % 1011,3 hPa 0,0 l/m 2,2 km/h (1 Bft) NW 313 0 min 0,000 mm 2,1 UV-I 240 W/m 15,9 C 19,4 C 4,8 km/h (1 Bft) 100,00 %
13.07.2016 13:00 19,4 C 78 % 1011,4 hPa 0,0 l/m 3,8 km/h (1 Bft) W 266 0 min 0,254 mm 1,8 UV-I 214 W/m 15,5 C 19,4 C 9,7 km/h (2 Bft) 97,87 %
13.07.2016 13:02 19,3 C 77 % 1011,6 hPa 0,0 l/m 2,7 km/h (1 Bft) W-NW 288 0 min 0,000 mm 1,5 UV-I 181 W/m 15,2 C 19,3 C 4,8 km/h (1 Bft) 97,87 %
13.07.2016 13:04 19,2 C 79 % 1011,5 hPa 0,0 l/m 1,7 km/h (1 Bft) W-NW 288 0 min 0,000 mm 1,3 UV-I 154 W/m 15,5 C 19,2 C 3,2 km/h (1 Bft) 97,73 %
13.07.2016 13:06 19,2 C 78 % 1011,5 hPa 0,0 l/m 0,8 km/h (0 Bft) W-NW 288 0 min 0,000 mm 1,4 UV-I 165 W/m 15,3 C 19,2 C 3,2 km/h (1 Bft) 96,00 %
13.07.2016 13:08 19,2 C 78 % 1011,4 hPa 0,0 l/m 0,8 km/h (0 Bft) W-NW 288 0 min 0,000 mm 1,9 UV-I 220 W/m 15,3 C 19,2 C 3,2 km/h (1 Bft) 95,12 %
13.07.2016 13:10 19,2 C 79 % 1011,3 hPa 0,0 l/m 1,3 km/h (1 Bft) NW 326 0 min 0,000 mm 2,3 UV-I 288 W/m 15,5 C 19,2 C 4,8 km/h (1 Bft) 92,45 %
13.07.2016 13:12 19,4 C 80 % 1011,4 hPa 0,0 l/m 0,5 km/h (0 Bft) N-NW 327 0 min 0,000 mm 2,3 UV-I 283 W/m 15,9 C 19,4 C 1,6 km/h (1 Bft) 94,87 %
13.07.2016 13:14 19,4 C 80 % 1011,5 hPa 0,0 l/m 1,3 km/h (1 Bft) N-NW 338 0 min 0,000 mm 2,1 UV-I 248 W/m 15,9 C 19,4 C 3,2 km/h (1 Bft) 97,87 %
13.07.2016 13:16 19,4 C 80 % 1011,5 hPa 0,0 l/m 1,1 km/h (1 Bft) NW 323 0 min 0,000 mm 2,0 UV-I 229 W/m 15,9 C 19,4 C 3,2 km/h (1 Bft) 98,00 %
13.07.2016 13:18 19,4 C 77 % 1011,4 hPa 0,0 l/m 2,5 km/h (1 Bft) NW 307 0 min 0,000 mm 2,0 UV-I 237 W/m 15,3 C 19,4 C 4,8 km/h (1 Bft) 97,73 %
13.07.2016 13:20 19,4 C 77 % 1011,4 hPa 0,0 l/m 1,9 km/h (1 Bft) NW 304 0 min 0,000 mm 2,1 UV-I 246 W/m 15,3 C 19,4 C 4,8 km/h (1 Bft) 97,87 %
13.07.2016 13:22 19,4 C 77 % 1011,4 hPa 0,0 l/m 2,1 km/h (1 Bft) W-NW 288 0 min 0,000 mm 1,8 UV-I 217 W/m 15,3 C 19,4 C 4,8 km/h (1 Bft) 97,87 %
13.07.2016 13:24 19,3 C 78 % 1011,4 hPa 0,0 l/m 0,8 km/h (0 Bft) S-SO 150 0 min 0,000 mm 1,6 UV-I 190 W/m 15,4 C 19,3 C 3,2 km/h (1 Bft) 96,00 %
13.07.2016 13:26 19,3 C 79 % 1011,4 hPa 0,0 l/m 2,1 km/h (1 Bft) S-SO 150 0 min 0,000 mm 1,4 UV-I 171 W/m 15,6 C 19,3 C 3,2 km/h (1 Bft) 100,00 %
13.07.2016 13:28 19,3 C 80 % 1011,5 hPa 0,0 l/m 2,7 km/h (1 Bft) S-SW 203 0 min 0,000 mm 1,3 UV-I 161 W/m 15,8 C 19,3 C 6,4 km/h (2 Bft) 96,55 %
13.07.2016 13:30 19,4 C 81 % 1011,4 hPa 0,0 l/m 3,2 km/h (1 Bft) W-SW 238 0 min 0,000 mm 1,3 UV-I 159 W/m 16,1 C 19,4 C 6,4 km/h (2 Bft) 98,00 %
13.07.2016 13:32 19,3 C 79 % 1011,4 hPa 0,0 l/m 3,3 km/h (1 Bft) W-SW 246 0 min 0,000 mm 1,2 UV-I 158 W/m 15,6 C 19,3 C 4,8 km/h (1 Bft) 97,87 %
13.07.2016 13:34 19,3 C 80 % 1011,4 hPa 0,0 l/m 5,0 km/h (1 Bft) W-SW 256 0 min 0,000 mm 1,3 UV-I 167 W/m 15,8 C 19,3 C 9,7 km/h (2 Bft) 100,00 %
13.07.2016 13:36 19,3 C 79 % 1011,4 hPa 0,0 l/m 2,7 km/h (1 Bft) NW 313 0 min 0,000 mm 1,3 UV-I 181 W/m 15,6 C 19,3 C 4,8 km/h (1 Bft) 91,43 %
13.07.2016 13:38 19,3 C 80 % 1011,3 hPa 0,0 l/m 1,1 km/h (1 Bft) NW 313 0 min 0,000 mm 1,5 UV-I 199 W/m 15,8 C 19,3 C 3,2 km/h (1 Bft) 98,11 %
13.07.2016 13:40 19,3 C 80 % 1011,3 hPa 0,0 l/m 3,5 km/h (1 Bft) W 279 0 min 0,000 mm 1,6 UV-I 212 W/m 15,8 C 19,3 C 6,4 km/h (2 Bft) 100,00 %
13.07.2016 13:42 19,3 C 81 % 1011,3 hPa 0,0 l/m 3,1 km/h (1 Bft) W-NW 288 0 min 0,000 mm 1,6 UV-I 219 W/m 16,0 C 19,3 C 6,4 km/h (2 Bft) 98,21 %
13.07.2016 13:44 19,3 C 80 % 1011,3 hPa 0,0 l/m 5,5 km/h (1 Bft) W-SW 250 0 min 0,000 mm 1,6 UV-I 225 W/m 15,8 C 19,3 C 9,7 km/h (2 Bft) 96,00 %
13.07.2016 13:46 19,2 C 81 % 1011,2 hPa 0,0 l/m 5,2 km/h (1 Bft) W-NW 288 0 min 0,000 mm 1,6 UV-I 224 W/m 15,9 C 19,2 C 9,7 km/h (2 Bft) 100,00 %
13.07.2016 13:48 19,2 C 83 % 1011,1 hPa 0,0 l/m 3,7 km/h (1 Bft) NW 306 0 min 0,000 mm 1,6 UV-I 221 W/m 16,2 C 19,2 C 8,0 km/h (2 Bft) 100,00 %
13.07.2016 13:50 19,1 C 82 % 1011,1 hPa 0,0 l/m 3,6 km/h (1 Bft) W-SW 245 0 min 0,000 mm 1,6 UV-I 218 W/m 16,0 C 19,1 C 6,4 km/h (2 Bft) 100,00 %
13.07.2016 13:52 19,1 C 83 % 1011,1 hPa 0,0 l/m 4,8 km/h (1 Bft) W 262 0 min 0,000 mm 1,5 UV-I 203 W/m 16,1 C 19,1 C 6,4 km/h (2 Bft) 100,00 %
13.07.2016 13:54 19,2 C 83 % 1011,2 hPa 0,0 l/m 5,6 km/h (1 Bft) SW 227 0 min 0,000 mm 1,3 UV-I 178 W/m 16,2 C 19,2 C 9,7 km/h (2 Bft) 100,00 %
13.07.2016 13:56 19,1 C 81 % 1011,3 hPa 0,0 l/m 4,5 km/h (1 Bft) W 275 0 min 0,000 mm 1,1 UV-I 152 W/m 15,8 C 19,1 C 9,7 km/h (2 Bft) 100,00 %
13.07.2016 13:58 19,1 C 81 % 1011,3 hPa 0,0 l/m 2,6 km/h (1 Bft) W-SW 256 0 min 0,000 mm 1,0 UV-I 142 W/m 15,8 C 19,1 C 6,4 km/h (2 Bft) 100,00 %
13.07.2016 14:00 19,0 C 81 % 1011,2 hPa 0,0 l/m 6,1 km/h (2 Bft) W-NW 284 0 min 0,127 mm 1,0 UV-I 135 W/m 15,7 C 19,0 C 11,3 km/h (2 Bft) 100,00 %
13.07.2016 14:02 18,9 C 81 % 1011,1 hPa 0,0 l/m 6,7 km/h (2 Bft) W 269 0 min 0,000 mm 0,9 UV-I 124 W/m 15,6 C 18,8 C 9,7 km/h (2 Bft) 100,00 %
13.07.2016 14:04 18,8 C 82 % 1011,0 hPa 0,0 l/m 6,3 km/h (2 Bft) W 277 0 min 0,000 mm 0,8 UV-I 116 W/m 15,7 C 18,8 C 11,3 km/h (2 Bft) 96,43 %
13.07.2016 14:06 18,8 C 82 % 1010,9 hPa 0,0 l/m 3,5 km/h (1 Bft) S-SW 209 0 min 0,000 mm 0,8 UV-I 114 W/m 15,7 C 18,8 C 9,7 km/h (2 Bft) 97,37 %
13.07.2016 14:08 18,8 C 83 % 1010,9 hPa 0,0 l/m 3,5 km/h (1 Bft) SW 227 0 min 0,000 mm 0,8 UV-I 111 W/m 15,8 C 18,8 C 4,8 km/h (1 Bft) 100,00 %
13.07.2016 14:10 18,7 C 82 % 1010,9 hPa 0,0 l/m 2,2 km/h (1 Bft) W 264 0 min 0,000 mm 0,7 UV-I 104 W/m 15,6 C 18,7 C 4,8 km/h (1 Bft) 98,11 %
13.07.2016 14:12 18,7 C 83 % 1010,9 hPa 0,0 l/m 3,3 km/h (1 Bft) SW 229 0 min 0,000 mm 0,7 UV-I 96 W/m 15,8 C 18,7 C 6,4 km/h (2 Bft) 100,00 %
13.07.2016 14:14 18,7 C 84 % 1010,9 hPa 0,0 l/m 6,0 km/h (2 Bft) W 267 0 min 0,000 mm 0,6 UV-I 87 W/m 15,9 C 18,7 C 9,7 km/h (2 Bft) 100,00 %
13.07.2016 14:16 18,7 C 84 % 1010,9 hPa 0,0 l/m 6,1 km/h (2 Bft) W-SW 243 0 min 0,000 mm 0,6 UV-I 79 W/m 15,9 C 18,7 C 9,7 km/h (2 Bft) 100,00 %
13.07.2016 14:18 18,6 C 83 % 1011,0 hPa 0,0 l/m 8,2 km/h (2 Bft) W-SW 243 0 min 0,000 mm 0,3 UV-I 69 W/m 15,7 C 17,8 C 12,9 km/h (3 Bft) 97,56 %
13.07.2016 14:20 18,5 C 84 % 1011,0 hPa 0,0 l/m 7,5 km/h (2 Bft) W-SW 238 0 min 0,000 mm 0,0 UV-I 57 W/m 15,7 C 18,0 C 11,3 km/h (2 Bft) 100,00 %
13.07.2016 14:22 18,4 C 85 % 1011,0 hPa 0,0 l/m 6,2 km/h (2 Bft) W-SW 238 0 min 0,000 mm 0,0 UV-I 54 W/m 15,8 C 18,4 C 9,7 km/h (2 Bft) 100,00 %
13.07.2016 14:24 18,3 C 85 % 1011,0 hPa 0,0 l/m 4,8 km/h (1 Bft) SW 232 0 min 0,000 mm 0,0 UV-I 55 W/m 15,7 C 18,3 C 6,4 km/h (2 Bft) 98,00 %
13.07.2016 14:26 18,2 C 85 % 1011,0 hPa 0,2 l/m 4,6 km/h (1 Bft) S-SW 205 0 min 0,000 mm 0,0 UV-I 53 W/m 15,6 C 18,2 C 6,4 km/h (2 Bft) 100,00 %
13.07.2016 14:28 18,1 C 86 % 1011,0 hPa 0,0 l/m 4,4 km/h (1 Bft) W-SW 251 0 min 0,000 mm 0,0 UV-I 49 W/m 15,7 C 18,1 C 6,4 km/h (2 Bft) 100,00 %
13.07.2016 14:30 18,0 C 87 % 1010,9 hPa 0,2 l/m 5,2 km/h (1 Bft) W 277 0 min 0,000 mm 0,0 UV-I 49 W/m 15,8 C 18,0 C 8,0 km/h (2 Bft) 97,87 %
13.07.2016 14:32 17,8 C 87 % 1010,8 hPa 0,2 l/m 4,3 km/h (1 Bft) W 259 0 min 0,000 mm 0,0 UV-I 52 W/m 15,6 C 17,8 C 6,4 km/h (2 Bft) 100,00 %
13.07.2016 14:34 17,7 C 88 % 1010,8 hPa 0,0 l/m 3,6 km/h (1 Bft) W 262 0 min 0,000 mm 0,0 UV-I 56 W/m 15,7 C 17,7 C 6,4 km/h (2 Bft) 100,00 %
13.07.2016 14:36 17,6 C 88 % 1010,8 hPa 0,2 l/m 4,2 km/h (1 Bft) W-SW 240 0 min 0,000 mm 0,1 UV-I 62 W/m 15,6 C 17,6 C 8,0 km/h (2 Bft) 100,00 %
13.07.2016 14:38 17,5 C 89 % 1010,9 hPa 0,2 l/m 4,3 km/h (1 Bft) S-SW 197 0 min 0,000 mm 0,5 UV-I 69 W/m 15,7 C 17,5 C 6,4 km/h (2 Bft) 100,00 %
13.07.2016 14:40 17,4 C 90 % 1011,0 hPa 0,0 l/m 5,0 km/h (1 Bft) S-SW 194 0 min 0,000 mm 0,5 UV-I 75 W/m 15,7 C 17,4 C 8,0 km/h (2 Bft) 97,14 %
13.07.2016 14:42 17,4 C 92 % 1011,1 hPa 0,2 l/m 5,0 km/h (1 Bft) S 181 0 min 0,000 mm 0,6 UV-I 84 W/m 16,1 C 17,4 C 8,0 km/h (2 Bft) 100,00 %
13.07.2016 14:44 17,4 C 92 % 1011,2 hPa 0,0 l/m 4,6 km/h (1 Bft) S 188 0 min 0,000 mm 0,6 UV-I 87 W/m 16,1 C 17,4 C 8,0 km/h (2 Bft) 95,74 %
13.07.2016 14:46 17,4 C 92 % 1011,2 hPa 0,0 l/m 6,3 km/h (2 Bft) S-SW 212 0 min 0,000 mm 0,6 UV-I 84 W/m 16,1 C 17,4 C 9,7 km/h (2 Bft) 100,00 %
13.07.2016 14:48 17,3 C 92 % 1011,2 hPa 0,2 l/m 6,2 km/h (2 Bft) S-SW 195 0 min 0,000 mm 0,6 UV-I 83 W/m 16,0 C 17,3 C 8,0 km/h (2 Bft) 97,87 %
13.07.2016 14:50 17,3 C 93 % 1011,2 hPa 0,0 l/m 6,8 km/h (2 Bft) SW 229 0 min 0,000 mm 0,6 UV-I 86 W/m 16,2 C 17,1 C 11,3 km/h (2 Bft) 100,00 %
13.07.2016 14:52 17,3 C 93 % 1011,2 hPa 0,0 l/m 6,0 km/h (2 Bft) S-SW 209 0 min 0,000 mm 0,6 UV-I 91 W/m 16,2 C 17,3 C 11,3 km/h (2 Bft) 100,00 %
13.07.2016 14:54 17,2 C 92 % 1011,2 hPa 0,0 l/m 6,6 km/h (2 Bft) S 177 0 min 0,000 mm 0,6 UV-I 88 W/m 15,9 C 17,1 C 9,7 km/h (2 Bft) 100,00 %
13.07.2016 14:56 17,2 C 93 % 1011,4 hPa 0,0 l/m 7,3 km/h (2 Bft) S-SW 196 0 min 0,000 mm 0,5 UV-I 77 W/m 16,1 C 16,8 C 9,7 km/h (2 Bft) 100,00 %
13.07.2016 14:58 17,2 C 93 % 1011,5 hPa 0,2 l/m 6,7 km/h (2 Bft) S-SW 205 0 min 0,000 mm 0,5 UV-I 70 W/m 16,1 C 17,1 C 8,0 km/h (2 Bft) 97,87 %
13.07.2016 15:00 17,2 C 93 % 1011,5 hPa 0,0 l/m 6,6 km/h (2 Bft) SW 215 0 min 0,000 mm 0,5 UV-I 68 W/m 16,1 C 17,1 C 9,7 km/h (2 Bft) 97,87 %
13.07.2016 15:02 17,2 C 93 % 1011,5 hPa 0,2 l/m 8,8 km/h (2 Bft) S 184 0 min 0,051 mm 0,0 UV-I 66 W/m 16,1 C 16,0 C 12,9 km/h (3 Bft) 97,37 %
13.07.2016 15:04 17,1 C 93 % 1011,5 hPa 0,0 l/m 6,9 km/h (2 Bft) SW 225 0 min 0,000 mm 0,0 UV-I 63 W/m 16,0 C 16,9 C 11,3 km/h (2 Bft) 98,11 %
13.07.2016 15:06 17,1 C 93 % 1011,3 hPa 0,0 l/m 5,9 km/h (2 Bft) S 189 0 min 0,000 mm 0,2 UV-I 67 W/m 16,0 C 17,1 C 9,7 km/h (2 Bft) 98,11 %
13.07.2016 15:08 17,1 C 93 % 1011,2 hPa 0,0 l/m 5,7 km/h (1 Bft) S 189 0 min 0,000 mm 0,5 UV-I 74 W/m 16,0 C 17,1 C 8,0 km/h (2 Bft) 97,22 %
13.07.2016 15:10 17,1 C 94 % 1011,1 hPa 0,0 l/m 3,4 km/h (1 Bft) S 189 0 min 0,000 mm 0,5 UV-I 81 W/m 16,1 C 17,1 C 6,4 km/h (2 Bft) 94,23 %
13.07.2016 15:12 17,1 C 93 % 1011,0 hPa 0,2 l/m 3,4 km/h (1 Bft) S 174 0 min 0,000 mm 0,6 UV-I 94 W/m 16,0 C 17,1 C 8,0 km/h (2 Bft) 97,92 %
13.07.2016 15:14 17,1 C 93 % 1011,0 hPa 0,0 l/m 3,4 km/h (1 Bft) S 184 0 min 0,000 mm 0,7 UV-I 110 W/m 16,0 C 17,1 C 4,8 km/h (1 Bft) 96,00 %
13.07.2016 15:16 17,2 C 94 % 1011,0 hPa 0,2 l/m 4,3 km/h (1 Bft) S 180 0 min 0,000 mm 0,8 UV-I 127 W/m 16,2 C 17,2 C 6,4 km/h (2 Bft) 97,92 %
13.07.2016 15:18 17,2 C 93 % 1011,0 hPa 0,0 l/m 4,2 km/h (1 Bft) S 189 0 min 0,000 mm 0,9 UV-I 145 W/m 16,1 C 17,2 C 8,0 km/h (2 Bft) 95,74 %
13.07.2016 15:20 17,2 C 93 % 1010,9 hPa 0,0 l/m 3,3 km/h (1 Bft) S-SW 196 0 min 0,000 mm 1,1 UV-I 159 W/m 16,1 C 17,2 C 6,4 km/h (2 Bft) 97,37 %
13.07.2016 15:22 17,2 C 94 % 1010,9 hPa 0,0 l/m 3,4 km/h (1 Bft) S-SW 203 0 min 0,000 mm 1,2 UV-I 179 W/m 16,2 C 17,2 C 4,8 km/h (1 Bft) 98,00 %
13.07.2016 15:24 17,2 C 93 % 1010,8 hPa 0,0 l/m 3,0 km/h (1 Bft) S 188 0 min 0,000 mm 1,4 UV-I 203 W/m 16,1 C 17,2 C 6,4 km/h (2 Bft) 97,73 %
13.07.2016 15:26 17,2 C 93 % 1010,7 hPa 0,0 l/m 2,1 km/h (1 Bft) S 190 0 min 0,000 mm 1,5 UV-I 226 W/m 16,1 C 17,2 C 3,2 km/h (1 Bft) 97,87 %
13.07.2016 15:28 17,3 C 93 % 1010,6 hPa 0,0 l/m 2,1 km/h (1 Bft) S 191 0 min 0,000 mm 1,6 UV-I 233 W/m 16,2 C 17,3 C 3,2 km/h (1 Bft) 95,74 %
13.07.2016 15:30 17,3 C 93 % 1010,4 hPa 0,2 l/m 1,5 km/h (1 Bft) S-SW 194 0 min 0,000 mm 1,6 UV-I 232 W/m 16,2 C 17,3 C 3,2 km/h (1 Bft) 96,00 %
13.07.2016 15:32 17,4 C 92 % 1010,2 hPa 0,0 l/m 1,0 km/h (0 Bft) W-SW 240 0 min 0,000 mm 1,5 UV-I 227 W/m 16,1 C 17,4 C 3,2 km/h (1 Bft) 98,11 %
13.07.2016 15:34 17,5 C 93 % 1010,1 hPa 0,0 l/m 1,2 km/h (1 Bft) W-SW 244 0 min 0,000 mm 1,5 UV-I 222 W/m 16,4 C 17,5 C 3,2 km/h (1 Bft) 97,92 %
13.07.2016 15:36 17,6 C 93 % 1010,2 hPa 0,0 l/m 0,1 km/h (0 Bft) W-SW 244 0 min 0,000 mm 1,5 UV-I 224 W/m 16,5 C 17,6 C 1,6 km/h (1 Bft) 97,37 %
13.07.2016 15:38 17,6 C 92 % 1010,2 hPa 0,0 l/m 2,1 km/h (1 Bft) W 264 0 min 0,000 mm 1,4 UV-I 211 W/m 16,3 C 17,6 C 4,8 km/h (1 Bft) 100,00 %
13.07.2016 15:40 17,6 C 93 % 1010,3 hPa 0,0 l/m 2,0 km/h (1 Bft) W 264 0 min 0,000 mm 1,3 UV-I 193 W/m 16,5 C 17,6 C 3,2 km/h (1 Bft) 100,00 %
13.07.2016 15:42 17,7 C 92 % 1010,3 hPa 0,0 l/m 3,0 km/h (1 Bft) W 260 0 min 0,000 mm 1,3 UV-I 187 W/m 16,4 C 17,7 C 4,8 km/h (1 Bft) 95,74 %
13.07.2016 15:44 17,6 C 92 % 1010,4 hPa 0,0 l/m 2,3 km/h (1 Bft) W 260 0 min 0,000 mm 1,2 UV-I 177 W/m 16,3 C 17,6 C 4,8 km/h (1 Bft) 100,00 %
13.07.2016 15:46 17,6 C 91 % 1010,3 hPa 0,0 l/m 2,6 km/h (1 Bft) W-SW 257 0 min 0,000 mm 1,1 UV-I 169 W/m 16,1 C 17,6 C 4,8 km/h (1 Bft) 100,00 %
13.07.2016 15:48 17,7 C 92 % 1010,3 hPa 0,0 l/m 2,8 km/h (1 Bft) S 188 0 min 0,000 mm 1,1 UV-I 159 W/m 16,4 C 17,7 C 4,8 km/h (1 Bft) 98,00 %
13.07.2016 15:50 17,7 C 92 % 1010,3 hPa 0,0 l/m 4,8 km/h (1 Bft) W 268 0 min 0,000 mm 1,1 UV-I 160 W/m 16,4 C 17,7 C 6,4 km/h (2 Bft) 100,00 %
13.07.2016 15:52 17,7 C 92 % 1010,3 hPa 0,0 l/m 3,3 km/h (1 Bft) S-SW 205 0 min 0,000 mm 1,0 UV-I 151 W/m 16,4 C 17,7 C 4,8 km/h (1 Bft) 95,56 %
13.07.2016 15:54 17,7 C 92 % 1010,2 hPa 0,0 l/m 3,3 km/h (1 Bft) SW 221 0 min 0,000 mm 0,9 UV-I 133 W/m 16,4 C 17,7 C 4,8 km/h (1 Bft) 100,00 %
13.07.2016 15:56 17,6 C 92 % 1010,2 hPa 0,0 l/m 4,0 km/h (1 Bft) S-SO 168 0 min 0,000 mm 0,8 UV-I 130 W/m 16,3 C 17,6 C 6,4 km/h (2 Bft) 98,00 %
13.07.2016 15:58 17,6 C 92 % 1010,1 hPa 0,0 l/m 2,9 km/h (1 Bft) W-SW 238 0 min 0,000 mm 0,9 UV-I 147 W/m 16,3 C 17,6 C 6,4 km/h (2 Bft) 100,00 %
13.07.2016 16:00 17,7 C 92 % 1010,1 hPa 0,0 l/m 4,1 km/h (1 Bft) W 269 0 min 0,102 mm 1,0 UV-I 161 W/m 16,4 C 17,7 C 6,4 km/h (2 Bft) 97,87 %
13.07.2016 16:02 17,7 C 92 % 1010,1 hPa 0,0 l/m 6,4 km/h (2 Bft) SW 223 0 min 0,000 mm 0,9 UV-I 171 W/m 16,4 C 17,7 C 11,3 km/h (2 Bft) 96,00 %
13.07.2016 16:04 17,8 C 92 % 1010,1 hPa 0,0 l/m 3,3 km/h (1 Bft) W-SW 244 0 min 0,000 mm 1,0 UV-I 190 W/m 16,5 C 17,8 C 6,4 km/h (2 Bft) 100,00 %
13.07.2016 16:06 17,8 C 92 % 1010,1 hPa 0,0 l/m 3,7 km/h (1 Bft) W 261 0 min 0,000 mm 1,2 UV-I 185 W/m 16,5 C 17,8 C 4,8 km/h (1 Bft) 100,00 %
13.07.2016 16:08 17,7 C 92 % 1010,1 hPa 0,0 l/m 1,9 km/h (1 Bft) W 261 0 min 0,000 mm 1,0 UV-I 160 W/m 16,4 C 17,7 C 3,2 km/h (1 Bft) 100,00 %
13.07.2016 16:10 17,7 C 91 % 1010,0 hPa 0,0 l/m 4,8 km/h (1 Bft) W 266 0 min 0,000 mm 1,0 UV-I 154 W/m 16,2 C 17,7 C 8,0 km/h (2 Bft) 100,00 %
13.07.2016 16:12 17,7 C 89 % 1010,0 hPa 0,0 l/m 3,4 km/h (1 Bft) W 271 0 min 0,000 mm 0,9 UV-I 142 W/m 15,9 C 17,7 C 6,4 km/h (2 Bft) 100,00 %
13.07.2016 16:14 17,7 C 90 % 1010,0 hPa 0,0 l/m 3,7 km/h (1 Bft) W-SW 252 0 min 0,000 mm 0,7 UV-I 111 W/m 16,0 C 17,7 C 6,4 km/h (2 Bft) 100,00 %
13.07.2016 16:16 17,7 C 90 % 1010,1 hPa 0,0 l/m 4,9 km/h (1 Bft) W-SW 247 0 min 0,000 mm 0,6 UV-I 96 W/m 16,0 C 17,7 C 11,3 km/h (2 Bft) 100,00 %
13.07.2016 16:18 17,7 C 90 % 1010,1 hPa 0,0 l/m 6,6 km/h (2 Bft) W-SW 248 0 min 0,000 mm 0,6 UV-I 91 W/m 16,0 C 17,6 C 11,3 km/h (2 Bft) 100,00 %
13.07.2016 16:20 17,7 C 89 % 1010,1 hPa 0,0 l/m 4,5 km/h (1 Bft) W 261 0 min 0,000 mm 0,6 UV-I 86 W/m 15,9 C 17,7 C 6,4 km/h (2 Bft) 100,00 %
13.07.2016 16:22 17,7 C 90 % 1010,1 hPa 0,0 l/m 4,2 km/h (1 Bft) W-SW 254 0 min 0,000 mm 0,5 UV-I 77 W/m 16,0 C 17,7 C 9,7 km/h (2 Bft) 95,12 %
13.07.2016 16:24 17,7 C 90 % 1010,0 hPa 0,0 l/m 5,1 km/h (1 Bft) W 263 0 min 0,000 mm 0,5 UV-I 81 W/m 16,0 C 17,7 C 8,0 km/h (2 Bft) 97,87 %
13.07.2016 16:26 17,7 C 90 % 1010,0 hPa 0,0 l/m 3,9 km/h (1 Bft) W 264 0 min 0,000 mm 0,7 UV-I 109 W/m 16,0 C 17,7 C 6,4 km/h (2 Bft) 100,00 %
13.07.2016 16:28 17,7 C 90 % 1010,0 hPa 0,0 l/m 2,3 km/h (1 Bft) W-SW 254 0 min 0,000 mm 0,8 UV-I 130 W/m 16,0 C 17,7 C 4,8 km/h (1 Bft) 100,00 %
13.07.2016 16:30 17,7 C 90 % 1010,0 hPa 0,0 l/m 4,0 km/h (1 Bft) W-SW 249 0 min 0,000 mm 0,8 UV-I 128 W/m 16,0 C 17,7 C 6,4 km/h (2 Bft) 98,00 %
13.07.2016 16:32 17,7 C 90 % 1010,0 hPa 0,0 l/m 3,7 km/h (1 Bft) W-SW 251 0 min 0,000 mm 0,8 UV-I 128 W/m 16,0 C 17,7 C 6,4 km/h (2 Bft) 97,56 %
13.07.2016 16:34 17,7 C 91 % 1010,0 hPa 0,0 l/m 4,3 km/h (1 Bft) W-SW 241 0 min 0,000 mm 0,8 UV-I 135 W/m 16,2 C 17,7 C 8,0 km/h (2 Bft) 100,00 %
13.07.2016 16:36 17,7 C 90 % 1010,0 hPa 0,0 l/m 2,8 km/h (1 Bft) W-SW 237 0 min 0,000 mm 0,7 UV-I 119 W/m 16,0 C 17,7 C 4,8 km/h (1 Bft) 96,55 %
13.07.2016 16:38 17,7 C 90 % 1010,1 hPa 0,0 l/m 2,2 km/h (1 Bft) W-SW 237 0 min 0,000 mm 0,6 UV-I 98 W/m 16,0 C 17,7 C 3,2 km/h (1 Bft) 100,00 %
13.07.2016 16:40 17,8 C 92 % 1010,1 hPa 0,0 l/m 2,8 km/h (1 Bft) W-SW 245 0 min 0,000 mm 0,5 UV-I 83 W/m 16,5 C 17,8 C 6,4 km/h (2 Bft) 100,00 %
13.07.2016 16:42 17,8 C 91 % 1010,1 hPa 0,0 l/m 2,2 km/h (1 Bft) W-SW 246 0 min 0,000 mm 0,5 UV-I 79 W/m 16,3 C 17,8 C 4,8 km/h (1 Bft) 100,00 %
13.07.2016 16:44 17,7 C 91 % 1010,1 hPa 0,0 l/m 2,7 km/h (1 Bft) SW 219 0 min 0,000 mm 0,5 UV-I 77 W/m 16,2 C 17,7 C 4,8 km/h (1 Bft) 98,21 %
13.07.2016 16:46 17,7 C 90 % 1010,2 hPa 0,0 l/m 2,9 km/h (1 Bft) SW 217 0 min 0,000 mm 0,3 UV-I 75 W/m 16,0 C 17,7 C 6,4 km/h (2 Bft) 98,00 %
13.07.2016 16:48 17,7 C 91 % 1010,2 hPa 0,0 l/m 3,9 km/h (1 Bft) S-SW 207 0 min 0,000 mm 0,0 UV-I 66 W/m 16,2 C 17,7 C 6,4 km/h (2 Bft) 100,00 %
13.07.2016 16:50 17,7 C 92 % 1010,2 hPa 0,0 l/m 3,5 km/h (1 Bft) SW 214 0 min 0,000 mm 0,0 UV-I 66 W/m 16,4 C 17,7 C 4,8 km/h (1 Bft) 98,46 %
13.07.2016 16:52 17,7 C 92 % 1010,1 hPa 0,0 l/m 2,5 km/h (1 Bft) SW 222 0 min 0,000 mm 0,0 UV-I 76 W/m 16,4 C 17,7 C 4,8 km/h (1 Bft) 98,00 %
13.07.2016 16:54 17,7 C 91 % 1010,0 hPa 0,0 l/m 2,1 km/h (1 Bft) SW 222 0 min 0,000 mm 0,0 UV-I 80 W/m 16,2 C 17,7 C 3,2 km/h (1 Bft) 100,00 %
13.07.2016 16:56 17,7 C 91 % 1010,0 hPa 0,0 l/m 4,2 km/h (1 Bft) W-SW 248 0 min 0,000 mm 0,0 UV-I 77 W/m 16,2 C 17,7 C 6,4 km/h (2 Bft) 100,00 %
13.07.2016 16:58 17,7 C 91 % 1009,9 hPa 0,0 l/m 4,8 km/h (1 Bft) W 273 0 min 0,000 mm 0,0 UV-I 74 W/m 16,2 C 17,7 C 8,0 km/h (2 Bft) 100,00 %
13.07.2016 17:00 17,7 C 90 % 1009,9 hPa 0,0 l/m 2,7 km/h (1 Bft) SW 229 0 min 0,000 mm 0,0 UV-I 68 W/m 16,0 C 17,7 C 6,4 km/h (2 Bft) 98,00 %
13.07.2016 17:02 17,7 C 90 % 1010,0 hPa 0,0 l/m 3,8 km/h (1 Bft) SW 226 0 min 0,076 mm 0,0 UV-I 54 W/m 16,0 C 17,7 C 6,4 km/h (2 Bft) 97,73 %
13.07.2016 17:04 17,7 C 89 % 1010,1 hPa 0,0 l/m 4,6 km/h (1 Bft) SW 228 0 min 0,000 mm 0,0 UV-I 45 W/m 15,9 C 17,7 C 6,4 km/h (2 Bft) 94,74 %
13.07.2016 17:06 17,7 C 90 % 1010,1 hPa 0,0 l/m 3,9 km/h (1 Bft) W-SW 240 0 min 0,000 mm 0,0 UV-I 44 W/m 16,0 C 17,7 C 6,4 km/h (2 Bft) 98,11 %
13.07.2016 17:08 17,6 C 90 % 1010,0 hPa 0,0 l/m 4,6 km/h (1 Bft) W-SW 246 0 min 0,000 mm 0,0 UV-I 47 W/m 15,9 C 17,6 C 6,4 km/h (2 Bft) 97,44 %
13.07.2016 17:10 17,6 C 89 % 1010,0 hPa 0,0 l/m 4,3 km/h (1 Bft) W 264 0 min 0,000 mm 0,0 UV-I 46 W/m 15,8 C 17,6 C 6,4 km/h (2 Bft) 98,00 %
13.07.2016 17:12 17,6 C 90 % 1009,9 hPa 0,0 l/m 2,9 km/h (1 Bft) W 264 0 min 0,000 mm 0,0 UV-I 46 W/m 15,9 C 17,6 C 4,8 km/h (1 Bft) 95,74 %
13.07.2016 17:14 17,6 C 90 % 1009,9 hPa 0,0 l/m 3,8 km/h (1 Bft) W-SW 246 0 min 0,000 mm 0,0 UV-I 43 W/m 15,9 C 17,6 C 6,4 km/h (2 Bft) 96,23 %
13.07.2016 17:16 17,6 C 91 % 1010,0 hPa 0,0 l/m 4,5 km/h (1 Bft) W-SW 246 0 min 0,000 mm 0,0 UV-I 41 W/m 16,1 C 17,6 C 8,0 km/h (2 Bft) 98,00 %
13.07.2016 17:18 17,6 C 92 % 1010,0 hPa 0,0 l/m 4,6 km/h (1 Bft) W-SW 242 0 min 0,000 mm 0,0 UV-I 37 W/m 16,3 C 17,6 C 6,4 km/h (2 Bft) 95,65 %
13.07.2016 17:20 17,5 C 92 % 1010,2 hPa 0,0 l/m 5,7 km/h (1 Bft) SW 229 0 min 0,000 mm 0,0 UV-I 30 W/m 16,2 C 17,5 C 9,7 km/h (2 Bft) 98,53 %
13.07.2016 17:22 17,5 C 92 % 1010,3 hPa 0,0 l/m 5,4 km/h (1 Bft) S-SW 209 0 min 0,000 mm 0,0 UV-I 25 W/m 16,2 C 17,5 C 9,7 km/h (2 Bft) 97,87 %
13.07.2016 17:24 17,5 C 92 % 1010,3 hPa 0,0 l/m 5,7 km/h (1 Bft) SW 236 0 min 0,000 mm 0,0 UV-I 21 W/m 16,2 C 17,5 C 9,7 km/h (2 Bft) 95,74 %
13.07.2016 17:26 17,5 C 92 % 1010,3 hPa 0,0 l/m 4,4 km/h (1 Bft) W-SW 245 0 min 0,000 mm 0,0 UV-I 19 W/m 16,2 C 17,5 C 6,4 km/h (2 Bft) 93,62 %
13.07.2016 17:28 17,4 C 92 % 1010,3 hPa 0,0 l/m 4,6 km/h (1 Bft) W-SW 246 0 min 0,000 mm 0,0 UV-I 20 W/m 16,1 C 17,4 C 6,4 km/h (2 Bft) 96,00 %
13.07.2016 17:30 17,4 C 93 % 1010,2 hPa 0,0 l/m 4,2 km/h (1 Bft) W-SW 250 0 min 0,000 mm 0,0 UV-I 23 W/m 16,3 C 17,4 C 8,0 km/h (2 Bft) 94,74 %
13.07.2016 17:32 17,4 C 92 % 1010,2 hPa 0,0 l/m 4,0 km/h (1 Bft) W-SW 248 0 min 0,000 mm 0,0 UV-I 26 W/m 16,1 C 17,4 C 6,4 km/h (2 Bft) 95,74 %
13.07.2016 17:34 17,4 C 93 % 1010,2 hPa 0,0 l/m 3,8 km/h (1 Bft) W-SW 246 0 min 0,000 mm 0,0 UV-I 27 W/m 16,3 C 17,4 C 4,8 km/h (1 Bft) 98,00 %
13.07.2016 17:36 17,4 C 93 % 1010,3 hPa 0,0 l/m 5,0 km/h (1 Bft) SW 222 0 min 0,000 mm 0,0 UV-I 26 W/m 16,3 C 17,4 C 8,0 km/h (2 Bft) 100,00 %
13.07.2016 17:38 17,3 C 93 % 1010,4 hPa 0,0 l/m 6,0 km/h (2 Bft) SW 231 0 min 0,000 mm 0,0 UV-I 24 W/m 16,2 C 17,3 C 8,0 km/h (2 Bft) 97,87 %
13.07.2016 17:40 17,4 C 93 % 1010,4 hPa 0,0 l/m 6,6 km/h (2 Bft) SW 234 0 min 0,000 mm 0,0 UV-I 23 W/m 16,3 C 17,3 C 11,3 km/h (2 Bft) 100,00 %
13.07.2016 17:42 17,3 C 93 % 1010,4 hPa 0,0 l/m 4,8 km/h (1 Bft) W 267 0 min 0,000 mm 0,0 UV-I 21 W/m 16,2 C 17,3 C 8,0 km/h (2 Bft) 100,00 %
13.07.2016 17:44 17,3 C 93 % 1010,3 hPa 0,0 l/m 5,6 km/h (1 Bft) W-SW 255 0 min 0,000 mm 0,0 UV-I 17 W/m 16,2 C 17,3 C 9,7 km/h (2 Bft) 98,21 %
13.07.2016 17:46 17,3 C 93 % 1010,3 hPa 0,0 l/m 5,2 km/h (1 Bft) W 280 0 min 0,000 mm 0,0 UV-I 17 W/m 16,2 C 17,3 C 8,0 km/h (2 Bft) 96,00 %
13.07.2016 17:48 17,3 C 93 % 1010,2 hPa 0,0 l/m 5,9 km/h (2 Bft) NW 305 0 min 0,000 mm 0,0 UV-I 16 W/m 16,2 C 17,3 C 14,5 km/h (3 Bft) 95,83 %
13.07.2016 17:50 17,2 C 93 % 1010,2 hPa 0,0 l/m 5,3 km/h (1 Bft) W 275 0 min 0,000 mm 0,0 UV-I 18 W/m 16,1 C 17,2 C 11,3 km/h (2 Bft) 98,57 %
13.07.2016 17:52 17,1 C 92 % 1010,1 hPa 0,0 l/m 5,2 km/h (1 Bft) W 263 0 min 0,000 mm 0,0 UV-I 20 W/m 15,8 C 17,1 C 9,7 km/h (2 Bft) 100,00 %
13.07.2016 17:54 16,9 C 91 % 1010,2 hPa 0,0 l/m 4,3 km/h (1 Bft) W-SW 245 0 min 0,000 mm 0,0 UV-I 19 W/m 15,4 C 16,9 C 6,4 km/h (2 Bft) 100,00 %
13.07.2016 17:56 16,8 C 90 % 1010,2 hPa 0,0 l/m 4,9 km/h (1 Bft) W-SW 246 0 min 0,000 mm 0,0 UV-I 19 W/m 15,1 C 16,8 C 6,4 km/h (2 Bft) 100,00 %
13.07.2016 17:58 16,7 C 90 % 1010,1 hPa 0,0 l/m 4,2 km/h (1 Bft) W 259 0 min 0,000 mm 0,0 UV-I 20 W/m 15,0 C 16,7 C 9,7 km/h (2 Bft) 100,00 %
13.07.2016 18:00 16,6 C 90 % 1010,1 hPa 0,0 l/m 5,3 km/h (1 Bft) W-SW 241 0 min 0,025 mm 0,0 UV-I 23 W/m 15,0 C 16,6 C 11,3 km/h (2 Bft) 100,00 %
13.07.2016 18:02 16,6 C 91 % 1010,0 hPa 0,0 l/m 4,3 km/h (1 Bft) W-SW 239 0 min 0,000 mm 0,0 UV-I 23 W/m 15,1 C 16,6 C 6,4 km/h (2 Bft) 100,00 %
13.07.2016 18:04 16,5 C 91 % 1009,9 hPa 0,0 l/m 4,1 km/h (1 Bft) W 265 0 min 0,000 mm 0,0 UV-I 21 W/m 15,0 C 16,5 C 6,4 km/h (2 Bft) 94,00 %
13.07.2016 18:06 16,4 C 92 % 1009,8 hPa 0,0 l/m 3,9 km/h (1 Bft) W-SW 240 0 min 0,000 mm 0,0 UV-I 23 W/m 15,1 C 16,4 C 6,4 km/h (2 Bft) 100,00 %
13.07.2016 18:08 16,4 C 92 % 1009,9 hPa 0,0 l/m 6,1 km/h (2 Bft) W-SW 250 0 min 0,000 mm 0,0 UV-I 23 W/m 15,1 C 16,4 C 11,3 km/h (2 Bft) 100,00 %
13.07.2016 18:10 16,4 C 92 % 1009,9 hPa 0,0 l/m 8,0 km/h (2 Bft) SW 221 0 min 0,000 mm 0,0 UV-I 21 W/m 15,1 C 15,6 C 12,9 km/h (3 Bft) 100,00 %
13.07.2016 18:12 16,3 C 92 % 1010,1 hPa 0,0 l/m 8,2 km/h (2 Bft) W 262 0 min 0,000 mm 0,0 UV-I 19 W/m 15,0 C 15,4 C 12,9 km/h (3 Bft) 100,00 %
13.07.2016 18:14 16,2 C 92 % 1010,1 hPa 0,0 l/m 9,3 km/h (2 Bft) W-SW 250 0 min 0,000 mm 0,0 UV-I 15 W/m 14,9 C 14,7 C 16,1 km/h (3 Bft) 100,00 %
13.07.2016 18:16 16,2 C 92 % 1010,0 hPa 0,0 l/m 7,4 km/h (2 Bft) W-SW 238 0 min 0,000 mm 0,0 UV-I 14 W/m 14,9 C 15,7 C 12,9 km/h (3 Bft) 97,56 %
13.07.2016 18:18 16,1 C 92 % 1010,0 hPa 0,0 l/m 8,6 km/h (2 Bft) W 262 0 min 0,000 mm 0,0 UV-I 14 W/m 14,8 C 15,0 C 12,9 km/h (3 Bft) 97,37 %
13.07.2016 18:20 16,1 C 92 % 1010,0 hPa 0,0 l/m 5,6 km/h (1 Bft) SW 232 0 min 0,000 mm 0,0 UV-I 16 W/m 14,8 C 16,1 C 9,7 km/h (2 Bft) 100,00 %
13.07.2016 18:22 16,0 C 92 % 1010,0 hPa 0,0 l/m 5,1 km/h (1 Bft) S 190 0 min 0,000 mm 0,0 UV-I 17 W/m 14,7 C 16,0 C 8,0 km/h (2 Bft) 100,00 %
13.07.2016 18:24 15,9 C 92 % 1010,1 hPa 0,0 l/m 2,4 km/h (1 Bft) S-SW 200 0 min 0,000 mm 0,0 UV-I 18 W/m 14,6 C 15,9 C 4,8 km/h (1 Bft) 100,00 %
13.07.2016 18:26 15,9 C 92 % 1010,0 hPa 0,0 l/m 1,5 km/h (1 Bft) S-SW 206 0 min 0,000 mm 0,0 UV-I 20 W/m 14,6 C 15,9 C 3,2 km/h (1 Bft) 100,00 %
13.07.2016 18:28 15,9 C 93 % 1009,9 hPa 0,0 l/m 2,9 km/h (1 Bft) W 269 0 min 0,000 mm 0,0 UV-I 25 W/m 14,8 C 15,9 C 4,8 km/h (1 Bft) 96,15 %
13.07.2016 18:30 15,9 C 93 % 1009,9 hPa 0,2 l/m 3,7 km/h (1 Bft) W-SW 242 0 min 0,000 mm 0,0 UV-I 26 W/m 14,8 C 15,9 C 6,4 km/h (2 Bft) 97,62 %
13.07.2016 18:32 15,9 C 93 % 1010,0 hPa 0,0 l/m 3,9 km/h (1 Bft) W-SW 238 0 min 0,000 mm 0,0 UV-I 27 W/m 14,8 C 15,9 C 6,4 km/h (2 Bft) 100,00 %
13.07.2016 18:34 15,9 C 93 % 1009,9 hPa 0,0 l/m 4,5 km/h (1 Bft) W-SW 237 0 min 0,000 mm 0,0 UV-I 29 W/m 14,8 C 15,9 C 6,4 km/h (2 Bft) 100,00 %
13.07.2016 18:36 15,8 C 94 % 1009,9 hPa 0,0 l/m 4,2 km/h (1 Bft) SW 221 0 min 0,000 mm 0,0 UV-I 31 W/m 14,8 C 15,8 C 6,4 km/h (2 Bft) 100,00 %
13.07.2016 18:38 15,8 C 94 % 1009,9 hPa 0,0 l/m 4,3 km/h (1 Bft) W-SW 244 0 min 0,000 mm 0,0 UV-I 28 W/m 14,8 C 15,8 C 8,0 km/h (2 Bft) 100,00 %
13.07.2016 18:40 15,8 C 94 % 1010,0 hPa 0,0 l/m 5,4 km/h (1 Bft) W-SW 240 0 min 0,000 mm 0,0 UV-I 26 W/m 14,8 C 15,8 C 8,0 km/h (2 Bft) 98,00 %
13.07.2016 18:42 15,8 C 94 % 1010,0 hPa 0,2 l/m 6,5 km/h (2 Bft) W-SW 237 0 min 0,000 mm 0,0 UV-I 22 W/m 14,8 C 15,8 C 9,7 km/h (2 Bft) 97,56 %
13.07.2016 18:44 15,8 C 94 % 1010,1 hPa 0,0 l/m 6,9 km/h (2 Bft) SW 236 0 min 0,000 mm 0,0 UV-I 20 W/m 14,8 C 15,5 C 11,3 km/h (2 Bft) 100,00 %
13.07.2016 18:46 15,8 C 95 % 1010,2 hPa 0,0 l/m 6,5 km/h (2 Bft) W-SW 248 0 min 0,000 mm 0,0 UV-I 19 W/m 15,0 C 15,8 C 8,0 km/h (2 Bft) 100,00 %
13.07.2016 18:48 15,8 C 94 % 1010,2 hPa 0,0 l/m 6,0 km/h (2 Bft) SW 225 0 min 0,000 mm 0,0 UV-I 19 W/m 14,8 C 15,8 C 9,7 km/h (2 Bft) 100,00 %
13.07.2016 18:50 15,7 C 95 % 1010,1 hPa 0,0 l/m 5,6 km/h (1 Bft) SW 216 0 min 0,000 mm 0,0 UV-I 21 W/m 14,9 C 15,7 C 8,0 km/h (2 Bft) 100,00 %
13.07.2016 18:52 15,7 C 95 % 1010,0 hPa 0,0 l/m 7,2 km/h (2 Bft) W-SW 250 0 min 0,000 mm 0,0 UV-I 21 W/m 14,9 C 15,3 C 12,9 km/h (3 Bft) 100,00 %
13.07.2016 18:54 15,7 C 95 % 1010,0 hPa 0,0 l/m 6,8 km/h (2 Bft) W-SW 252 0 min 0,000 mm 0,0 UV-I 19 W/m 14,9 C 15,5 C 11,3 km/h (2 Bft) 98,11 %
13.07.2016 18:56 15,6 C 95 % 1010,0 hPa 0,0 l/m 10,4 km/h (2 Bft) W-SW 247 0 min 0,000 mm 0,0 UV-I 18 W/m 14,8 C 13,6 C 16,1 km/h (3 Bft) 100,00 %
13.07.2016 18:58 15,6 C 95 % 1010,0 hPa 0,0 l/m 7,5 km/h (2 Bft) SW 230 0 min 0,000 mm 0,0 UV-I 15 W/m 14,8 C 15,0 C 11,3 km/h (2 Bft) 98,00 %
13.07.2016 19:00 15,6 C 95 % 1010,0 hPa 0,0 l/m 9,7 km/h (2 Bft) SW 227 0 min 0,026 mm 0,0 UV-I 12 W/m 14,8 C 13,9 C 12,9 km/h (3 Bft) 95,45 %
13.07.2016 19:02 15,6 C 95 % 1009,9 hPa 0,0 l/m 6,6 km/h (2 Bft) SW 227 0 min 0,000 mm 0,0 UV-I 12 W/m 14,8 C 15,5 C 9,7 km/h (2 Bft) 95,12 %
13.07.2016 19:04 15,6 C 95 % 1009,9 hPa 0,0 l/m 6,4 km/h (2 Bft) W-SW 258 0 min 0,000 mm 0,0 UV-I 12 W/m 14,8 C 15,6 C 9,7 km/h (2 Bft) 98,21 %
13.07.2016 19:06 15,6 C 95 % 1009,9 hPa 0,0 l/m 7,6 km/h (2 Bft) W-SW 258 0 min 0,000 mm 0,0 UV-I 12 W/m 14,8 C 14,9 C 12,9 km/h (3 Bft) 97,44 %
13.07.2016 19:08 15,6 C 95 % 1010,0 hPa 0,0 l/m 6,7 km/h (2 Bft) W-SW 245 0 min 0,000 mm 0,0 UV-I 13 W/m 14,8 C 15,4 C 9,7 km/h (2 Bft) 98,08 %
13.07.2016 19:10 15,6 C 95 % 1010,0 hPa 0,0 l/m 11,8 km/h (2 Bft) W-SW 258 0 min 0,000 mm 0,0 UV-I 15 W/m 14,8 C 13,0 C 17,7 km/h (3 Bft) 97,62 %
13.07.2016 19:12 15,6 C 95 % 1010,0 hPa 0,0 l/m 13,1 km/h (3 Bft) SW 236 0 min 0,000 mm 0,0 UV-I 16 W/m 14,8 C 12,6 C 16,1 km/h (3 Bft) 97,56 %
13.07.2016 19:14 15,7 C 95 % 1010,1 hPa 0,0 l/m 7,9 km/h (2 Bft) W 261 0 min 0,000 mm 0,0 UV-I 16 W/m 14,9 C 14,9 C 14,5 km/h (3 Bft) 96,23 %
13.07.2016 19:16 15,6 C 95 % 1010,0 hPa 0,0 l/m 9,7 km/h (2 Bft) W-SW 246 0 min 0,000 mm 0,0 UV-I 14 W/m 14,8 C 13,9 C 16,1 km/h (3 Bft) 97,56 %
13.07.2016 19:18 15,6 C 95 % 1010,1 hPa 0,2 l/m 11,1 km/h (2 Bft) SW 234 0 min 0,000 mm 0,0 UV-I 14 W/m 14,8 C 13,3 C 19,3 km/h (3 Bft) 98,21 %
13.07.2016 19:20 15,5 C 94 % 1010,1 hPa 0,0 l/m 11,0 km/h (2 Bft) SW 217 0 min 0,000 mm 0,0 UV-I 13 W/m 14,5 C 13,2 C 16,1 km/h (3 Bft) 96,00 %
13.07.2016 19:22 15,5 C 94 % 1010,2 hPa 0,0 l/m 10,6 km/h (2 Bft) SW 227 0 min 0,000 mm 0,0 UV-I 12 W/m 14,5 C 13,4 C 16,1 km/h (3 Bft) 95,74 %
13.07.2016 19:24 15,5 C 94 % 1010,2 hPa 0,0 l/m 12,7 km/h (3 Bft) S 186 0 min 0,000 mm 0,0 UV-I 12 W/m 14,5 C 12,6 C 19,3 km/h (3 Bft) 97,87 %
13.07.2016 19:26 15,4 C 94 % 1010,2 hPa 0,0 l/m 12,8 km/h (3 Bft) SW 219 0 min 0,000 mm 0,0 UV-I 12 W/m 14,4 C 12,4 C 19,3 km/h (3 Bft) 94,74 %
13.07.2016 19:28 15,5 C 94 % 1010,3 hPa 0,0 l/m 12,4 km/h (3 Bft) SW 227 0 min 0,000 mm 0,0 UV-I 11 W/m 14,5 C 12,7 C 17,7 km/h (3 Bft) 96,00 %
13.07.2016 19:30 15,5 C 94 % 1010,4 hPa 0,0 l/m 13,1 km/h (3 Bft) SW 231 0 min 0,000 mm 0,0 UV-I 11 W/m 14,5 C 12,4 C 19,3 km/h (3 Bft) 93,02 %
13.07.2016 19:32 15,5 C 94 % 1010,5 hPa 0,0 l/m 13,8 km/h (3 Bft) SW 227 0 min 0,000 mm 0,0 UV-I 9 W/m 14,5 C 12,2 C 17,7 km/h (3 Bft) 94,34 %
13.07.2016 19:34 15,5 C 94 % 1010,4 hPa 0,0 l/m 11,1 km/h (2 Bft) SW 234 0 min 0,000 mm 0,0 UV-I 7 W/m 14,5 C 13,2 C 14,5 km/h (3 Bft) 97,87 %
13.07.2016 19:36 15,5 C 94 % 1010,3 hPa 0,0 l/m 12,3 km/h (3 Bft) S-SW 211 0 min 0,000 mm 0,0 UV-I 7 W/m 14,5 C 12,7 C 20,9 km/h (4 Bft) 97,87 %
13.07.2016 19:38 15,5 C 94 % 1010,3 hPa 0,0 l/m 15,2 km/h (3 Bft) W-SW 238 0 min 0,000 mm 0,0 UV-I 7 W/m 14,5 C 11,7 C 20,9 km/h (4 Bft) 100,00 %
13.07.2016 19:40 15,5 C 94 % 1010,3 hPa 0,0 l/m 13,6 km/h (3 Bft) W-SW 241 0 min 0,000 mm 0,0 UV-I 7 W/m 14,5 C 12,3 C 19,3 km/h (3 Bft) 97,87 %
13.07.2016 19:42 15,5 C 94 % 1010,3 hPa 0,2 l/m 12,9 km/h (3 Bft) S 180 0 min 0,000 mm 0,0 UV-I 7 W/m 14,5 C 12,5 C 17,7 km/h (3 Bft) 97,44 %
13.07.2016 19:44 15,5 C 94 % 1010,2 hPa 0,0 l/m 8,3 km/h (2 Bft) SW 220 0 min 0,000 mm 0,0 UV-I 9 W/m 14,5 C 14,5 C 16,1 km/h (3 Bft) 98,08 %
13.07.2016 19:46 15,4 C 94 % 1010,0 hPa 0,2 l/m 4,8 km/h (1 Bft) SW 232 0 min 0,000 mm 0,0 UV-I 11 W/m 14,4 C 15,4 C 8,0 km/h (2 Bft) 100,00 %
13.07.2016 19:48 15,5 C 95 % 1009,9 hPa 0,0 l/m 5,1 km/h (1 Bft) W-SW 248 0 min 0,000 mm 0,0 UV-I 12 W/m 14,7 C 15,5 C 9,7 km/h (2 Bft) 100,00 %
13.07.2016 19:50 15,4 C 95 % 1009,8 hPa 0,0 l/m 6,5 km/h (2 Bft) W-SW 238 0 min 0,000 mm 0,0 UV-I 12 W/m 14,6 C 15,4 C 12,9 km/h (3 Bft) 100,00 %
13.07.2016 19:52 15,4 C 95 % 1009,9 hPa 0,2 l/m 9,9 km/h (2 Bft) W 259 0 min 0,000 mm 0,0 UV-I 12 W/m 14,6 C 13,6 C 12,9 km/h (3 Bft) 97,87 %
13.07.2016 19:54 15,4 C 95 % 1010,1 hPa 0,0 l/m 9,6 km/h (2 Bft) W 264 0 min 0,000 mm 0,0 UV-I 10 W/m 14,6 C 13,7 C 16,1 km/h (3 Bft) 100,00 %
13.07.2016 19:56 15,4 C 95 % 1010,1 hPa 0,2 l/m 8,0 km/h (2 Bft) W-SW 242 0 min 0,000 mm 0,0 UV-I 8 W/m 14,6 C 14,5 C 12,9 km/h (3 Bft) 98,00 %
13.07.2016 19:58 15,4 C 95 % 1010,2 hPa 0,0 l/m 8,7 km/h (2 Bft) W-SW 246 0 min 0,000 mm 0,0 UV-I 7 W/m 14,6 C 14,2 C 16,1 km/h (3 Bft) 97,37 %
13.07.2016 20:00 15,4 C 95 % 1010,2 hPa 0,0 l/m 7,2 km/h (2 Bft) W-SW 251 0 min 0,000 mm 0,0 UV-I 7 W/m 14,6 C 15,0 C 14,5 km/h (3 Bft) 100,00 %
13.07.2016 20:02 15,4 C 95 % 1010,2 hPa 0,0 l/m 9,6 km/h (2 Bft) SW 228 0 min 0,025 mm 0,0 UV-I 9 W/m 14,6 C 13,7 C 14,5 km/h (3 Bft) 97,56 %
13.07.2016 20:04 15,4 C 96 % 1010,3 hPa 0,0 l/m 11,3 km/h (2 Bft) SW 228 0 min 0,000 mm 0,0 UV-I 10 W/m 14,8 C 13,0 C 16,1 km/h (3 Bft) 98,00 %
13.07.2016 20:06 15,4 C 96 % 1010,4 hPa 0,0 l/m 9,8 km/h (2 Bft) W-SW 240 0 min 0,000 mm 0,0 UV-I 11 W/m 14,8 C 13,6 C 14,5 km/h (3 Bft) 100,00 %
13.07.2016 20:08 15,4 C 96 % 1010,3 hPa 0,0 l/m 8,5 km/h (2 Bft) SW 235 0 min 0,000 mm 0,0 UV-I 12 W/m 14,8 C 14,3 C 12,9 km/h (3 Bft) 100,00 %
13.07.2016 20:10 15,4 C 96 % 1010,1 hPa 0,0 l/m 6,5 km/h (2 Bft) SW 232 0 min 0,000 mm 0,0 UV-I 14 W/m 14,8 C 15,4 C 12,9 km/h (3 Bft) 97,37 %
13.07.2016 20:12 15,4 C 96 % 1010,2 hPa 0,0 l/m 5,3 km/h (1 Bft) SW 226 0 min 0,000 mm 0,0 UV-I 16 W/m 14,8 C 15,4 C 8,0 km/h (2 Bft) 100,00 %
13.07.2016 20:14 15,4 C 96 % 1010,1 hPa 0,0 l/m 6,3 km/h (2 Bft) W-SW 248 0 min 0,000 mm 0,0 UV-I 14 W/m 14,8 C 15,4 C 8,0 km/h (2 Bft) 100,00 %
13.07.2016 20:16 15,4 C 96 % 1010,0 hPa 0,0 l/m 4,6 km/h (1 Bft) W-SW 240 0 min 0,000 mm 0,0 UV-I 14 W/m 14,8 C 15,4 C 9,7 km/h (2 Bft) 100,00 %
13.07.2016 20:18 15,4 C 96 % 1010,1 hPa 0,0 l/m 4,4 km/h (1 Bft) W-SW 237 0 min 0,000 mm 0,0 UV-I 16 W/m 14,8 C 15,4 C 6,4 km/h (2 Bft) 100,00 %
13.07.2016 20:20 15,5 C 96 % 1010,2 hPa 0,0 l/m 6,3 km/h (2 Bft) W-SW 258 0 min 0,000 mm 0,0 UV-I 18 W/m 14,9 C 15,5 C 11,3 km/h (2 Bft) 97,87 %
13.07.2016 20:22 15,5 C 96 % 1010,2 hPa 0,0 l/m 6,1 km/h (2 Bft) W-SW 242 0 min 0,000 mm 0,0 UV-I 20 W/m 14,9 C 15,5 C 11,3 km/h (2 Bft) 100,00 %
13.07.2016 20:24 15,4 C 96 % 1010,0 hPa 0,0 l/m 4,1 km/h (1 Bft) W-SW 255 0 min 0,000 mm 0,0 UV-I 22 W/m 14,8 C 15,4 C 6,4 km/h (2 Bft) 100,00 %
13.07.2016 20:26 15,5 C 96 % 1010,0 hPa 0,0 l/m 5,9 km/h (2 Bft) W-SW 252 0 min 0,000 mm 0,0 UV-I 25 W/m 14,9 C 15,5 C 8,0 km/h (2 Bft) 100,00 %
13.07.2016 20:28 15,5 C 96 % 1010,2 hPa 0,0 l/m 5,4 km/h (1 Bft) W-SW 246 0 min 0,000 mm 0,0 UV-I 22 W/m 14,9 C 15,5 C 11,3 km/h (2 Bft) 97,73 %
13.07.2016 20:30 15,5 C 96 % 1010,2 hPa 0,0 l/m 6,9 km/h (2 Bft) W-SW 251 0 min 0,000 mm 0,0 UV-I 18 W/m 14,9 C 15,2 C 9,7 km/h (2 Bft) 98,11 %
13.07.2016 20:32 15,6 C 96 % 1010,1 hPa 0,0 l/m 5,3 km/h (1 Bft) W-SW 256 0 min 0,000 mm 0,0 UV-I 16 W/m 15,0 C 15,6 C 9,7 km/h (2 Bft) 100,00 %
13.07.2016 20:34 15,6 C 96 % 1010,1 hPa 0,0 l/m 3,9 km/h (1 Bft) W-SW 248 0 min 0,000 mm 0,0 UV-I 13 W/m 15,0 C 15,6 C 6,4 km/h (2 Bft) 100,00 %
13.07.2016 20:36 15,6 C 97 % 1010,2 hPa 0,0 l/m 6,2 km/h (2 Bft) SW 230 0 min 0,000 mm 0,0 UV-I 7 W/m 15,1 C 15,6 C 9,7 km/h (2 Bft) 100,00 %
13.07.2016 20:38 15,6 C 96 % 1010,3 hPa 0,2 l/m 7,1 km/h (2 Bft) SW 219 0 min 0,000 mm 0,0 UV-I 5 W/m 15,0 C 15,2 C 11,3 km/h (2 Bft) 100,00 %
13.07.2016 20:40 15,5 C 96 % 1010,3 hPa 0,0 l/m 8,3 km/h (2 Bft) S-SW 212 0 min 0,000 mm 0,0 UV-I 0 W/m 14,9 C 14,5 C 12,9 km/h (3 Bft) 100,00 %
13.07.2016 20:42 15,5 C 97 % 1010,4 hPa 0,2 l/m 10,0 km/h (2 Bft) W-SW 249 0 min 0,000 mm 0,0 UV-I 0 W/m 15,0 C 13,7 C 17,7 km/h (3 Bft) 98,11 %
13.07.2016 20:44 15,5 C 96 % 1010,4 hPa 0,4 l/m 14,0 km/h (3 Bft) W-SW 257 0 min 0,000 mm 0,0 UV-I 0 W/m 14,9 C 12,1 C 24,1 km/h (4 Bft) 97,73 %
13.07.2016 20:46 15,4 C 96 % 1010,6 hPa 0,4 l/m 6,6 km/h (2 Bft) SW 221 0 min 0,000 mm 0,0 UV-I 0 W/m 14,8 C 15,3 C 12,9 km/h (3 Bft) 100,00 %
13.07.2016 20:48 15,3 C 96 % 1010,6 hPa 0,8 l/m 10,3 km/h (2 Bft) W-SW 250 0 min 0,000 mm 0,0 UV-I 0 W/m 14,7 C 13,3 C 17,7 km/h (3 Bft) 100,00 %
13.07.2016 20:50 15,2 C 96 % 1010,6 hPa 0,0 l/m 11,8 km/h (2 Bft) W-NW 291 0 min 0,000 mm 0,0 UV-I 0 W/m 14,6 C 12,6 C 27,4 km/h (4 Bft) 97,87 %
13.07.2016 20:52 15,2 C 96 % 1010,8 hPa 0,2 l/m 14,9 km/h (3 Bft) W-SW 254 0 min 0,000 mm 0,0 UV-I 0 W/m 14,6 C 11,5 C 30,6 km/h (5 Bft) 100,00 %
13.07.2016 20:54 15,1 C 96 % 1011,0 hPa 0,0 l/m 15,9 km/h (3 Bft) SW 226 0 min 0,000 mm 0,0 UV-I 0 W/m 14,5 C 11,0 C 27,4 km/h (4 Bft) 100,00 %
13.07.2016 20:56 14,9 C 96 % 1011,1 hPa 0,2 l/m 16,1 km/h (3 Bft) W-SW 245 0 min 0,000 mm 0,0 UV-I 0 W/m 14,3 C 10,7 C 22,5 km/h (4 Bft) 100,00 %
13.07.2016 20:58 14,7 C 95 % 1011,2 hPa 0,0 l/m 20,0 km/h (4 Bft) W-SW 255 0 min 0,000 mm 0,0 UV-I 0 W/m 13,9 C 9,4 C 33,8 km/h (5 Bft) 98,00 %
13.07.2016 21:00 14,4 C 94 % 1011,3 hPa 0,2 l/m 19,8 km/h (3 Bft) SW 234 0 min 0,000 mm 0,0 UV-I 0 W/m 13,4 C 9,0 C 32,2 km/h (5 Bft) 96,00 %
13.07.2016 21:02 14,2 C 94 % 1011,5 hPa 0,0 l/m 15,9 km/h (3 Bft) W 268 0 min 0,000 mm 0,0 UV-I 0 W/m 13,2 C 9,9 C 27,4 km/h (4 Bft) 97,87 %
13.07.2016 21:04 14,0 C 94 % 1011,3 hPa 0,0 l/m 18,9 km/h (3 Bft) W 278 0 min 0,000 mm 0,0 UV-I 0 W/m 13,0 C 8,8 C 30,6 km/h (5 Bft) 97,44 %
13.07.2016 21:06 13,8 C 94 % 1011,3 hPa 0,0 l/m 16,9 km/h (3 Bft) W-SW 247 0 min 0,000 mm 0,0 UV-I 0 W/m 12,9 C 9,1 C 27,4 km/h (4 Bft) 98,11 %
13.07.2016 21:08 13,7 C 94 % 1011,3 hPa 0,2 l/m 18,8 km/h (3 Bft) W 259 0 min 0,000 mm 0,0 UV-I 0 W/m 12,8 C 8,4 C 27,4 km/h (4 Bft) 98,11 %
13.07.2016 21:10 13,6 C 94 % 1011,3 hPa 0,0 l/m 15,2 km/h (3 Bft) SW 234 0 min 0,000 mm 0,0 UV-I 0 W/m 12,7 C 9,4 C 22,5 km/h (4 Bft) 97,14 %
13.07.2016 21:12 13,5 C 94 % 1011,4 hPa 0,0 l/m 17,0 km/h (3 Bft) W-SW 254 0 min 0,000 mm 0,0 UV-I 0 W/m 12,6 C 8,7 C 22,5 km/h (4 Bft) 97,78 %
13.07.2016 21:14 13,4 C 94 % 1011,4 hPa 0,2 l/m 18,5 km/h (3 Bft) W 270 0 min 0,000 mm 0,0 UV-I 0 W/m 12,5 C 8,1 C 25,7 km/h (4 Bft) 96,30 %
13.07.2016 21:16 13,4 C 94 % 1011,4 hPa 0,0 l/m 16,5 km/h (3 Bft) W-SW 252 0 min 0,000 mm 0,0 UV-I 0 W/m 12,5 C 8,7 C 25,7 km/h (4 Bft) 98,11 %
13.07.2016 21:18 13,4 C 94 % 1011,4 hPa 0,0 l/m 15,6 km/h (3 Bft) W 276 0 min 0,000 mm 0,0 UV-I 0 W/m 12,5 C 9,0 C 20,9 km/h (4 Bft) 97,37 %
13.07.2016 21:20 13,3 C 95 % 1011,4 hPa 0,0 l/m 15,3 km/h (3 Bft) W-SW 238 0 min 0,000 mm 0,0 UV-I 0 W/m 12,5 C 9,0 C 24,1 km/h (4 Bft) 98,00 %
13.07.2016 21:22 13,3 C 95 % 1011,5 hPa 0,0 l/m 14,0 km/h (3 Bft) W-SW 240 0 min 0,000 mm 0,0 UV-I 0 W/m 12,5 C 9,5 C 20,9 km/h (4 Bft) 96,00 %
13.07.2016 21:24 13,3 C 95 % 1011,6 hPa 0,2 l/m 13,2 km/h (3 Bft) W-SW 242 0 min 0,000 mm 0,0 UV-I 0 W/m 12,5 C 9,8 C 22,5 km/h (4 Bft) 94,74 %
13.07.2016 21:26 13,3 C 95 % 1011,6 hPa 0,0 l/m 15,5 km/h (3 Bft) S-SW 212 0 min 0,000 mm 0,0 UV-I 0 W/m 12,5 C 9,0 C 24,1 km/h (4 Bft) 98,11 %
13.07.2016 21:28 13,2 C 95 % 1011,7 hPa 0,0 l/m 13,5 km/h (3 Bft) W 262 0 min 0,000 mm 0,0 UV-I 0 W/m 12,4 C 9,6 C 17,7 km/h (3 Bft) 97,73 %
13.07.2016 21:30 13,2 C 95 % 1011,8 hPa 0,0 l/m 12,0 km/h (2 Bft) SW 223 0 min 0,000 mm 0,0 UV-I 0 W/m 12,4 C 10,2 C 17,7 km/h (3 Bft) 92,00 %
13.07.2016 21:32 13,2 C 96 % 1011,9 hPa 0,2 l/m 16,0 km/h (3 Bft) W-SW 244 0 min 0,000 mm 0,0 UV-I 0 W/m 12,6 C 8,7 C 22,5 km/h (4 Bft) 97,56 %
13.07.2016 21:34 13,2 C 96 % 1011,9 hPa 0,0 l/m 15,3 km/h (3 Bft) W 261 0 min 0,000 mm 0,0 UV-I 0 W/m 12,6 C 8,9 C 22,5 km/h (4 Bft) 100,00 %
13.07.2016 21:36 13,2 C 96 % 1011,9 hPa 0,0 l/m 14,1 km/h (3 Bft) W 260 0 min 0,000 mm 0,0 UV-I 0 W/m 12,6 C 9,3 C 17,7 km/h (3 Bft) 95,45 %
13.07.2016 21:38 13,2 C 96 % 1011,9 hPa 0,0 l/m 13,8 km/h (3 Bft) W-SW 254 0 min 0,000 mm 0,0 UV-I 0 W/m 12,6 C 9,5 C 20,9 km/h (4 Bft) 100,00 %
13.07.2016 21:40 13,2 C 96 % 1011,9 hPa 0,2 l/m 15,4 km/h (3 Bft) W-SW 239 0 min 0,000 mm 0,0 UV-I 0 W/m 12,6 C 8,9 C 22,5 km/h (4 Bft) 96,30 %
13.07.2016 21:42 13,2 C 96 % 1011,9 hPa 0,0 l/m 15,8 km/h (3 Bft) W-SW 242 0 min 0,000 mm 0,0 UV-I 0 W/m 12,6 C 8,7 C 20,9 km/h (4 Bft) 100,00 %
13.07.2016 21:44 13,2 C 96 % 1012,0 hPa 0,0 l/m 15,2 km/h (3 Bft) W 263 0 min 0,000 mm 0,0 UV-I 0 W/m 12,6 C 8,9 C 20,9 km/h (4 Bft) 100,00 %
13.07.2016 21:46 13,2 C 96 % 1012,1 hPa 0,0 l/m 11,0 km/h (2 Bft) SW 236 0 min 0,000 mm 0,0 UV-I 0 W/m 12,6 C 10,6 C 20,9 km/h (4 Bft) 95,74 %
13.07.2016 21:48 13,2 C 96 % 1012,2 hPa 0,0 l/m 13,3 km/h (3 Bft) W-SW 243 0 min 0,000 mm 0,0 UV-I 0 W/m 12,6 C 9,7 C 19,3 km/h (3 Bft) 100,00 %
13.07.2016 21:50 13,2 C 96 % 1012,2 hPa 0,2 l/m 11,6 km/h (2 Bft) S-SW 209 0 min 0,000 mm 0,0 UV-I 0 W/m 12,6 C 10,4 C 17,7 km/h (3 Bft) 100,00 %
13.07.2016 21:52 13,2 C 96 % 1012,3 hPa 0,0 l/m 16,4 km/h (3 Bft) W-SW 238 0 min 0,000 mm 0,0 UV-I 0 W/m 12,6 C 8,5 C 20,9 km/h (4 Bft) 97,87 %
13.07.2016 21:54 13,2 C 96 % 1012,2 hPa 0,0 l/m 15,8 km/h (3 Bft) W-SW 242 0 min 0,000 mm 0,0 UV-I 0 W/m 12,6 C 8,7 C 22,5 km/h (4 Bft) 100,00 %
13.07.2016 21:56 13,2 C 96 % 1012,3 hPa 0,0 l/m 17,0 km/h (3 Bft) W-SW 254 0 min 0,000 mm 0,0 UV-I 0 W/m 12,6 C 8,3 C 25,7 km/h (4 Bft) 100,00 %
13.07.2016 21:58 13,2 C 96 % 1012,3 hPa 0,0 l/m 11,8 km/h (2 Bft) W-SW 244 0 min 0,000 mm 0,0 UV-I 0 W/m 12,6 C 10,3 C 16,1 km/h (3 Bft) 97,56 %
13.07.2016 22:00 13,2 C 96 % 1012,4 hPa 0,0 l/m 11,6 km/h (2 Bft) W-SW 238 0 min 0,000 mm 0,0 UV-I 0 W/m 12,6 C 10,4 C 16,1 km/h (3 Bft) 98,00 %
13.07.2016 22:02 13,2 C 96 % 1012,4 hPa 0,2 l/m 10,5 km/h (2 Bft) W-SW 252 0 min 0,000 mm 0,0 UV-I 0 W/m 12,6 C 10,9 C 17,7 km/h (3 Bft) 97,87 %
13.07.2016 22:04 13,2 C 96 % 1012,5 hPa 0,0 l/m 13,6 km/h (3 Bft) W-SW 246 0 min 0,000 mm 0,0 UV-I 0 W/m 12,6 C 9,5 C 22,5 km/h (4 Bft) 98,00 %
13.07.2016 22:06 13,2 C 96 % 1012,5 hPa 0,0 l/m 15,3 km/h (3 Bft) W 263 0 min 0,000 mm 0,0 UV-I 0 W/m 12,6 C 8,9 C 22,5 km/h (4 Bft) 97,37 %
13.07.2016 22:08 13,2 C 96 % 1012,6 hPa 0,0 l/m 16,7 km/h (3 Bft) W-SW 242 0 min 0,000 mm 0,0 UV-I 0 W/m 12,6 C 8,4 C 24,1 km/h (4 Bft) 100,00 %
13.07.2016 22:10 13,2 C 96 % 1012,6 hPa 0,0 l/m 18,3 km/h (3 Bft) W 264 0 min 0,000 mm 0,0 UV-I 0 W/m 12,6 C 7,9 C 24,1 km/h (4 Bft) 97,37 %
13.07.2016 22:12 13,2 C 96 % 1012,7 hPa 0,2 l/m 15,3 km/h (3 Bft) W-SW 254 0 min 0,000 mm 0,0 UV-I 0 W/m 12,6 C 8,9 C 25,7 km/h (4 Bft) 98,00 %
13.07.2016 22:14 13,2 C 96 % 1012,7 hPa 0,0 l/m 17,4 km/h (3 Bft) W 260 0 min 0,000 mm 0,0 UV-I 0 W/m 12,6 C 8,2 C 25,7 km/h (4 Bft) 100,00 %
13.07.2016 22:16 13,2 C 96 % 1012,7 hPa 0,0 l/m 18,1 km/h (3 Bft) W 269 0 min 0,000 mm 0,0 UV-I 0 W/m 12,6 C 8,0 C 29,0 km/h (5 Bft) 97,87 %
13.07.2016 22:18 13,1 C 96 % 1012,8 hPa 0,2 l/m 16,5 km/h (3 Bft) W-SW 250 0 min 0,000 mm 0,0 UV-I 0 W/m 12,5 C 8,4 C 22,5 km/h (4 Bft) 100,00 %
13.07.2016 22:20 13,1 C 96 % 1012,7 hPa 0,0 l/m 15,2 km/h (3 Bft) SW 225 0 min 0,000 mm 0,0 UV-I 0 W/m 12,5 C 8,8 C 20,9 km/h (4 Bft) 100,00 %
13.07.2016 22:22 13,2 C 96 % 1012,7 hPa 0,0 l/m 15,6 km/h (3 Bft) W-SW 243 0 min 0,000 mm 0,0 UV-I 0 W/m 12,6 C 8,8 C 20,9 km/h (4 Bft) 94,55 %
13.07.2016 22:24 13,2 C 96 % 1012,7 hPa 0,0 l/m 13,6 km/h (3 Bft) W-SW 238 0 min 0,000 mm 0,0 UV-I 0 W/m 12,6 C 9,5 C 22,5 km/h (4 Bft) 97,44 %
13.07.2016 22:26 13,2 C 96 % 1012,8 hPa 0,0 l/m 17,4 km/h (3 Bft) W-SW 248 0 min 0,000 mm 0,0 UV-I 0 W/m 12,6 C 8,2 C 25,7 km/h (4 Bft) 98,11 %
13.07.2016 22:28 13,2 C 96 % 1012,8 hPa 0,0 l/m 10,3 km/h (2 Bft) W-SW 249 0 min 0,000 mm 0,0 UV-I 0 W/m 12,6 C 11,0 C 19,3 km/h (3 Bft) 97,73 %
13.07.2016 22:30 13,2 C 96 % 1012,8 hPa 0,2 l/m 13,9 km/h (3 Bft) W-SW 257 0 min 0,000 mm 0,0 UV-I 0 W/m 12,6 C 9,4 C 20,9 km/h (4 Bft) 98,11 %
13.07.2016 22:32 13,1 C 96 % 1012,8 hPa 0,0 l/m 13,9 km/h (3 Bft) W-SW 248 0 min 0,000 mm 0,0 UV-I 0 W/m 12,5 C 9,3 C 20,9 km/h (4 Bft) 100,00 %
13.07.2016 22:34 13,1 C 96 % 1012,7 hPa 0,0 l/m 11,6 km/h (2 Bft) SW 225 0 min 0,000 mm 0,0 UV-I 0 W/m 12,5 C 10,3 C 24,1 km/h (4 Bft) 97,56 %
13.07.2016 22:36 13,1 C 97 % 1012,7 hPa 0,0 l/m 15,9 km/h (3 Bft) SW 225 0 min 0,000 mm 0,0 UV-I 0 W/m 12,6 C 8,6 C 22,5 km/h (4 Bft) 100,00 %
13.07.2016 22:38 13,1 C 97 % 1012,7 hPa 0,0 l/m 15,7 km/h (3 Bft) SW 227 0 min 0,000 mm 0,0 UV-I 0 W/m 12,6 C 8,6 C 25,7 km/h (4 Bft) 100,00 %
13.07.2016 22:40 13,1 C 97 % 1012,8 hPa 0,0 l/m 12,5 km/h (3 Bft) W 274 0 min 0,000 mm 0,0 UV-I 0 W/m 12,6 C 9,9 C 16,1 km/h (3 Bft) 98,11 %
13.07.2016 22:42 13,1 C 97 % 1012,8 hPa 0,0 l/m 15,2 km/h (3 Bft) W 264 0 min 0,000 mm 0,0 UV-I 0 W/m 12,6 C 8,8 C 24,1 km/h (4 Bft) 100,00 %
13.07.2016 22:44 13,1 C 97 % 1012,7 hPa 0,2 l/m 15,4 km/h (3 Bft) W-SW 254 0 min 0,000 mm 0,0 UV-I 0 W/m 12,6 C 8,7 C 22,5 km/h (4 Bft) 100,00 %
13.07.2016 22:46 13,1 C 97 % 1012,7 hPa 0,0 l/m 16,1 km/h (3 Bft) W 261 0 min 0,000 mm 0,0 UV-I 0 W/m 12,6 C 8,5 C 22,5 km/h (4 Bft) 100,00 %
13.07.2016 22:48 13,1 C 97 % 1012,7 hPa 0,0 l/m 15,6 km/h (3 Bft) W-SW 238 0 min 0,000 mm 0,0 UV-I 0 W/m 12,6 C 8,7 C 20,9 km/h (4 Bft) 100,00 %
13.07.2016 22:50 13,1 C 97 % 1012,8 hPa 0,0 l/m 14,4 km/h (3 Bft) W-SW 252 0 min 0,000 mm 0,0 UV-I 0 W/m 12,6 C 9,1 C 22,5 km/h (4 Bft) 100,00 %
13.07.2016 22:52 13,1 C 97 % 1012,8 hPa 0,0 l/m 12,8 km/h (3 Bft) W 263 0 min 0,000 mm 0,0 UV-I 0 W/m 12,6 C 9,7 C 19,3 km/h (3 Bft) 98,31 %
13.07.2016 22:54 13,1 C 97 % 1012,9 hPa 0,0 l/m 13,9 km/h (3 Bft) SW 234 0 min 0,000 mm 0,0 UV-I 0 W/m 12,6 C 9,3 C 19,3 km/h (3 Bft) 97,37 %
13.07.2016 22:56 13,1 C 97 % 1012,9 hPa 0,0 l/m 14,7 km/h (3 Bft) W-SW 242 0 min 0,000 mm 0,0 UV-I 0 W/m 12,6 C 9,0 C 22,5 km/h (4 Bft) 100,00 %
13.07.2016 22:58 13,1 C 97 % 1012,9 hPa 0,0 l/m 12,2 km/h (2 Bft) S-SW 198 0 min 0,000 mm 0,0 UV-I 0 W/m 12,6 C 10,0 C 19,3 km/h (3 Bft) 100,00 %
13.07.2016 23:00 13,1 C 97 % 1012,9 hPa 0,0 l/m 12,6 km/h (3 Bft) SW 234 0 min 0,000 mm 0,0 UV-I 0 W/m 12,6 C 9,8 C 19,3 km/h (3 Bft) 91,67 %
13.07.2016 23:02 13,1 C 97 % 1012,8 hPa 0,0 l/m 14,1 km/h (3 Bft) W-SW 243 0 min 0,000 mm 0,0 UV-I 0 W/m 12,6 C 9,2 C 20,9 km/h (4 Bft) 98,18 %
13.07.2016 23:04 13,1 C 97 % 1012,8 hPa 0,0 l/m 12,7 km/h (3 Bft) SW 225 0 min 0,000 mm 0,0 UV-I 0 W/m 12,6 C 9,8 C 19,3 km/h (3 Bft) 97,62 %
13.07.2016 23:06 13,1 C 97 % 1012,8 hPa 0,0 l/m 11,6 km/h (2 Bft) SW 226 0 min 0,000 mm 0,0 UV-I 0 W/m 12,6 C 10,3 C 16,1 km/h (3 Bft) 96,23 %
13.07.2016 23:08 13,1 C 97 % 1012,8 hPa 0,0 l/m 11,9 km/h (2 Bft) W 265 0 min 0,000 mm 0,0 UV-I 0 W/m 12,6 C 10,1 C 17,7 km/h (3 Bft) 97,56 %
13.07.2016 23:10 13,2 C 97 % 1012,7 hPa 0,0 l/m 11,0 km/h (2 Bft) W-SW 242 0 min 0,000 mm 0,0 UV-I 0 W/m 12,7 C 10,6 C 17,7 km/h (3 Bft) 98,00 %
13.07.2016 23:12 13,2 C 97 % 1012,6 hPa 0,0 l/m 9,0 km/h (2 Bft) SW 231 0 min 0,000 mm 0,0 UV-I 0 W/m 12,7 C 11,6 C 14,5 km/h (3 Bft) 96,23 %
13.07.2016 23:14 13,2 C 97 % 1012,6 hPa 0,2 l/m 11,8 km/h (2 Bft) S-SW 211 0 min 0,000 mm 0,0 UV-I 0 W/m 12,7 C 10,3 C 17,7 km/h (3 Bft) 97,87 %
13.07.2016 23:16 13,1 C 97 % 1012,6 hPa 0,0 l/m 12,2 km/h (2 Bft) W 262 0 min 0,000 mm 0,0 UV-I 0 W/m 12,6 C 10,0 C 19,3 km/h (3 Bft) 97,14 %
13.07.2016 23:18 13,2 C 97 % 1012,6 hPa 0,0 l/m 9,4 km/h (2 Bft) SW 230 0 min 0,000 mm 0,0 UV-I 0 W/m 12,7 C 11,4 C 16,1 km/h (3 Bft) 98,00 %
13.07.2016 23:20 13,2 C 97 % 1012,6 hPa 0,0 l/m 10,9 km/h (2 Bft) SW 222 0 min 0,000 mm 0,0 UV-I 0 W/m 12,7 C 10,7 C 17,7 km/h (3 Bft) 97,87 %
13.07.2016 23:22 13,2 C 97 % 1012,6 hPa 0,0 l/m 12,0 km/h (2 Bft) SW 236 0 min 0,000 mm 0,0 UV-I 0 W/m 12,7 C 10,2 C 17,7 km/h (3 Bft) 97,87 %
13.07.2016 23:24 13,2 C 97 % 1012,6 hPa 0,2 l/m 12,7 km/h (3 Bft) W-SW 239 0 min 0,000 mm 0,0 UV-I 0 W/m 12,7 C 9,9 C 20,9 km/h (4 Bft) 95,12 %
13.07.2016 23:26 13,2 C 97 % 1012,5 hPa 0,0 l/m 11,2 km/h (2 Bft) W-SW 248 0 min 0,000 mm 0,0 UV-I 0 W/m 12,7 C 10,6 C 19,3 km/h (3 Bft) 98,21 %
13.07.2016 23:28 13,2 C 97 % 1012,5 hPa 0,0 l/m 10,0 km/h (2 Bft) W-SW 248 0 min 0,000 mm 0,0 UV-I 0 W/m 12,7 C 11,1 C 19,3 km/h (3 Bft) 97,87 %
13.07.2016 23:30 13,2 C 97 % 1012,5 hPa 0,0 l/m 12,6 km/h (3 Bft) W-SW 252 0 min 0,000 mm 0,0 UV-I 0 W/m 12,7 C 9,9 C 20,9 km/h (4 Bft) 92,68 %
13.07.2016 23:32 13,2 C 97 % 1012,5 hPa 0,2 l/m 10,6 km/h (2 Bft) S-SW 212 0 min 0,000 mm 0,0 UV-I 0 W/m 12,7 C 10,8 C 14,5 km/h (3 Bft) 97,87 %
13.07.2016 23:34 13,2 C 97 % 1012,5 hPa 0,0 l/m 11,1 km/h (2 Bft) S 189 0 min 0,000 mm 0,0 UV-I 0 W/m 12,7 C 10,6 C 16,1 km/h (3 Bft) 97,87 %
13.07.2016 23:36 13,2 C 97 % 1012,6 hPa 0,2 l/m 11,4 km/h (2 Bft) SW 221 0 min 0,000 mm 0,0 UV-I 0 W/m 12,7 C 10,5 C 19,3 km/h (3 Bft) 96,43 %
13.07.2016 23:38 13,2 C 97 % 1012,7 hPa 0,2 l/m 11,8 km/h (2 Bft) W-SW 239 0 min 0,000 mm 0,0 UV-I 0 W/m 12,7 C 10,3 C 19,3 km/h (3 Bft) 97,56 %
13.07.2016 23:40 13,2 C 97 % 1012,7 hPa 0,0 l/m 12,5 km/h (3 Bft) W-SW 251 0 min 0,000 mm 0,0 UV-I 0 W/m 12,7 C 10,0 C 17,7 km/h (3 Bft) 100,00 %
13.07.2016 23:42 13,2 C 97 % 1012,7 hPa 0,2 l/m 12,3 km/h (3 Bft) S-SW 211 0 min 0,000 mm 0,0 UV-I 0 W/m 12,7 C 10,1 C 17,7 km/h (3 Bft) 93,75 %
13.07.2016 23:44 13,2 C 97 % 1012,7 hPa 0,2 l/m 14,7 km/h (3 Bft) W-SW 248 0 min 0,000 mm 0,0 UV-I 0 W/m 12,7 C 9,1 C 25,7 km/h (4 Bft) 96,23 %
13.07.2016 23:46 13,2 C 97 % 1012,7 hPa 0,2 l/m 15,5 km/h (3 Bft) SW 225 0 min 0,000 mm 0,0 UV-I 0 W/m 12,7 C 8,8 C 24,1 km/h (4 Bft) 97,87 %
13.07.2016 23:48 13,1 C 97 % 1012,7 hPa 0,2 l/m 22,6 km/h (4 Bft) W 261 0 min 0,000 mm 0,0 UV-I 0 W/m 12,6 C 6,6 C 33,8 km/h (5 Bft) 100,00 %
13.07.2016 23:50 13,1 C 97 % 1012,7 hPa 0,0 l/m 17,6 km/h (3 Bft) W 280 0 min 0,000 mm 0,0 UV-I 0 W/m 12,6 C 8,0 C 25,7 km/h (4 Bft) 100,00 %
13.07.2016 23:52 13,1 C 97 % 1012,6 hPa 0,2 l/m 14,2 km/h (3 Bft) W-SW 250 0 min 0,000 mm 0,0 UV-I 0 W/m 12,6 C 9,2 C 22,5 km/h (4 Bft) 98,31 %
13.07.2016 23:54 13,1 C 97 % 1012,6 hPa 0,0 l/m 15,7 km/h (3 Bft) W-SW 239 0 min 0,000 mm 0,0 UV-I 0 W/m 12,6 C 8,6 C 19,3 km/h (3 Bft) 96,88 %
13.07.2016 23:56 13,1 C 97 % 1012,6 hPa 0,2 l/m 9,6 km/h (2 Bft) SW 221 0 min 0,000 mm 0,0 UV-I 0 W/m 12,6 C 11,2 C 17,7 km/h (3 Bft) 100,00 %
13.07.2016 23:58 13,1 C 97 % 1012,7 hPa 0,2 l/m 12,3 km/h (3 Bft) W-SW 252 0 min 0,000 mm 0,0 UV-I 0 W/m 12,6 C 10,0 C 22,5 km/h (4 Bft) 95,74 %
_ Min-Zeit 22:18 12:10 18:06 - 15:36 - - - - - - 21:28 23:48 13:12 13:36
Minimum _ 13,1 C 77 % 1009,8 hPa - 0,1 km/h (0 Bft) - - - - - - 12,4 C 6,6 C 1,6 km/h (1 Bft) 91,43 %
_ Max-Zeit 12:18 03:38 22:54 20:48 23:48 - - 09:10 13:00 12:14 10:50 00:00 12:28 20:58 00:00
Maximum _ 19,9 C 97 % 1012,9 hPa 0,8 l/m 22,6 km/h
W (4 Bft)
- - 2 min 0,254 mm 5,2 UV-I 865 W/m 16,9 C 19,9 C 33,8 km/h
W-SW (5 Bft)
100,00 %
Durchschnitt _ 16,5 C 92 % 1011,4 hPa #19,0 l/m 6,7 km/h (2 Bft) W-SW - #50 min. #1,473 mm 1,9 UV-I 156 W/m 15,2 C 15,7 C 10,9 km/h (2 Bft) 98,46 %